GFSSGP_500_spd_063.txt.gz
Wind_Speed
24 25 22 25 27 33 38 38 35 31 26 27 26 30 29 24 22 26 26 26 25 26 30 32 34 35 34 34 40 35 37 34 31 29 26 19 12 12 11 11 11 11 11 13 14 14 14 15 15
20 22 21 21 24 26 27 30 31 28 30 29 28 24 24 21 25 26 27 26 25 26 29 38 38 38 38 37 35 38 32 35 31 30 24 17 12 13 12 13 11 11 13 13 14 14 14 15 16
18 21 19 17 13 12 17 22 29 30 30 30 27 27 22 18 22 24 29 29 34 30 33 27 36 39 37 37 32 32 37 33 34 29 25 12 13 16 14 13 13 13 13 14 16 17 18 19 20
17 18 15 9 9 12 14 19 25 25 29 32 33 32 25 23 21 21 24 31 34 33 34 37 35 33 34 34 35 35 36 35 36 28 16 13 17 15 16 14 13 14 15 17 20 20 22 22 22
16 12 9 8 12 14 19 21 24 26 27 30 34 30 26 25 26 23 23 30 31 30 27 29 30 34 34 35 38 38 40 37 37 25 12 16 19 15 18 15 15 16 18 20 21 24 28 27 27
12 9 7 14 17 20 24 24 26 26 22 24 23 24 23 22 25 27 27 27 34 31 28 27 28 32 27 35 32 37 38 38 33 23 16 19 14 19 16 18 17 17 19 21 25 28 31 30 26
11 8 12 18 23 24 28 28 25 22 22 22 26 24 21 25 22 21 22 23 27 30 26 34 23 30 30 27 26 37 40 36 16 14 17 15 19 17 18 17 16 18 22 26 26 26 24 27 28
12 11 16 16 24 28 30 28 27 25 19 24 16 21 22 24 25 31 24 25 22 25 25 32 39 28 26 32 38 37 40 39 19 15 17 18 13 17 14 15 20 21 21 22 26 26 27 24 24
11 14 17 19 23 25 28 22 25 24 23 19 22 23 25 24 22 24 23 21 20 22 29 39 29 30 38 43 41 41 32 18 15 14 15 13 14 13 16 19 19 21 21 23 27 27 24 23 21
11 16 20 21 24 26 23 18 22 21 17 17 19 26 27 32 25 32 27 32 28 23 29 32 34 31 35 40 40 29 14 21 18 13 15 16 14 14 17 18 21 22 22 27 26 25 29 31 32
16 18 25 27 26 26 27 22 17 19 21 17 18 22 25 31 25 21 29 25 17 30 30 26 27 34 38 37 17 19 19 14 13 16 15 14 13 15 15 18 19 22 27 24 24 31 31 31 33
16 16 23 25 27 23 20 20 21 27 26 27 26 23 23 19 19 17 22 23 24 22 26 26 25 20 19 20 22 18 16 16 13 10 10 9 13 18 21 23 24 26 29 25 30 26 24 26 27
16 17 18 22 20 17 17 20 26 25 26 27 26 25 23 15 14 13 19 22 23 19 25 17 15 18 20 16 14 12 13 10 9 9 11 11 15 17 22 22 25 26 24 23 24 27 28 29 31
19 16 11 13 20 18 16 19 19 13 15 15 13 9 14 13 15 17 11 18 17 21 19 19 19 19 19 18 13 11 7 6 7 14 14 17 17 20 18 19 18 20 23 26 27 28 30 32 33
23 22 18 14 14 16 19 4 3 4 6 5 11 18 17 15 17 14 19 16 19 16 19 17 13 13 10 10 7 6 8 9 13 11 15 14 13 13 14 17 19 22 24 27 30 31 34 37 39
25 25 17 19 16 17 8 4 7 5 6 4 7 15 11 19 20 21 15 15 14 15 12 13 11 9 7 7 10 9 8 10 13 12 11 9 11 13 16 19 22 25 29 32 34 35 37 40 42
16 22 23 9 11 15 14 5 6 11 12 16 13 16 17 16 18 16 18 16 13 13 13 13 10 9 6 6 6 7 10 11 11 8 9 12 15 17 19 23 27 31 34 37 39 41 43 45 46
18 19 17 12 18 17 14 8 10 9 11 12 11 10 11 9 12 12 10 10 8 7 5 5 4 3 2 6 8 10 8 6 8 11 14 16 18 21 24 29 33 36 39 41 43 44 46 47 48
6 4 14 17 18 15 11 9 4 8 9 13 12 8 9 9 8 4 4 1 3 4 6 5 1 4 5 7 8 6 5 8 13 15 17 20 24 27 31 34 37 40 43 44 46 48 48 49 50
13 19 16 15 13 12 11 8 6 2 8 12 7 8 8 8 8 8 6 3 2 3 5 5 5 4 7 9 6 7 10 14 17 18 22 26 30 33 37 39 42 44 46 48 50 51 52 52 53
15 10 10 10 10 11 11 10 4 4 4 7 7 8 5 6 5 5 5 5 6 6 6 6 8 9 9 7 10 12 14 19 21 24 28 32 35 38 41 44 46 48 50 52 53 54 55 55 56
10 15 14 11 8 4 4 7 2 4 7 4 2 6 5 8 7 7 8 8 7 7 7 8 9 8 8 11 14 16 20 23 26 30 33 37 40 43 46 47 49 51 53 54 54 56 55 56 57
8 9 15 14 6 8 7 4 4 7 9 4 5 7 8 9 5 8 9 9 11 9 8 7 8 9 9 14 18 23 26 29 31 34 38 42 45 47 49 49 48 50 52 55 56 56 56 57 59
6 8 16 14 14 13 12 10 5 9 7 4 11 11 7 8 10 11 11 10 9 8 9 8 8 11 15 19 24 28 30 34 36 39 42 45 47 49 48 52 54 54 54 56 57 58 59 61 62
10 13 14 15 18 17 18 18 9 8 8 7 9 8 7 4 6 6 5 4 7 7 8 9 13 16 20 24 28 32 36 38 40 43 46 47 49 51 53 57 59 59 62 61 60 61 64 66 66
20 17 15 17 19 22 23 21 15 12 11 10 12 12 6 5 6 6 7 9 10 11 12 16 17 21 25 29 33 36 40 42 44 47 48 48 50 51 57 59 60 61 62 63 64 67 69 69 71
18 19 20 23 22 23 19 17 13 15 15 14 14 13 10 10 9 10 11 12 12 13 16 19 22 25 29 33 37 41 44 46 47 48 49 51 52 53 59 64 67 64 63 65 67 69 70 71 73
17 20 20 20 21 23 21 21 19 16 18 19 14 16 17 15 12 12 14 14 14 16 20 24 27 31 34 38 42 46 48 47 48 49 51 46 44 54 61 70 64 65 66 68 67 69 70 72 74
17 16 16 17 22 18 19 19 23 18 17 19 17 19 18 17 17 16 17 18 20 23 26 30 34 37 40 44 47 47 45 47 49 51 49 50 57 56 64 64 65 67 68 68 69 69 72 75 80
22 23 22 21 19 22 23 22 21 18 18 19 20 21 22 23 21 21 22 23 26 28 31 35 39 42 45 46 43 42 43 45 48 53 50 55 58 60 61 64 67 67 69 70 72 74 76 78 81

GFSSGP_500_spd_066.txt.gz
Wind_Speed
25 21 23 24 25 30 33 29 34 30 38 30 31 33 29 31 29 32 32 29 31 26 21 19 23 28 30 30 30 31 29 32 30 29 31 27 20 10 8 9 9 11 10 10 10 12 13 15 17
21 19 19 21 22 19 23 29 29 38 29 35 40 27 28 30 26 25 21 24 24 20 18 19 21 26 30 34 33 32 27 27 29 32 33 28 20 9 10 10 10 10 10 10 11 13 15 17 18
19 16 15 18 14 12 14 23 34 39 36 29 29 33 23 18 20 21 23 27 27 25 24 28 29 31 30 28 33 31 29 30 29 35 36 32 21 9 11 12 13 10 11 12 14 16 18 21 23
14 12 13 13 8 12 15 19 27 32 32 31 30 27 27 25 22 23 25 21 20 24 29 30 32 32 28 30 33 30 29 31 29 35 34 29 15 14 14 14 13 11 12 15 15 17 20 22 24
10 11 11 9 12 15 19 21 22 25 29 31 32 28 28 24 26 25 25 23 24 27 31 28 27 29 26 29 35 32 30 30 33 37 35 31 13 15 15 14 14 13 14 17 18 19 22 23 25
9 11 8 12 16 17 20 24 25 25 28 28 28 30 31 29 27 24 29 28 26 27 28 30 28 30 32 25 28 39 36 36 38 38 31 19 15 17 15 15 15 14 16 17 19 23 25 24 26
10 10 13 15 17 19 21 21 24 20 25 25 25 21 21 25 25 26 26 25 22 21 23 26 30 29 30 26 37 38 37 32 36 36 33 17 20 14 15 14 14 17 18 21 22 21 22 25 29
11 11 13 16 20 18 20 15 18 22 22 26 22 23 26 24 22 23 25 23 22 23 23 20 30 33 47 29 32 44 37 34 35 28 21 18 14 14 12 17 14 17 21 23 20 24 28 29 29
10 12 14 18 18 21 23 17 9 20 24 21 23 26 21 23 25 22 25 27 31 30 25 26 35 44 33 23 31 36 32 34 31 23 17 14 14 14 14 14 17 21 21 20 24 27 30 27 27
10 16 17 18 19 20 19 16 13 15 23 27 26 23 23 25 23 25 27 29 28 31 28 27 43 42 38 33 35 39 38 26 18 18 15 13 11 13 15 18 18 20 22 22 25 28 23 27 28
13 15 18 18 21 20 18 18 22 21 16 22 27 21 25 23 25 27 29 29 29 31 31 38 32 44 30 27 28 39 27 18 16 15 16 14 12 16 17 20 21 20 23 26 28 23 24 24 27
14 10 12 18 21 22 19 18 20 24 23 26 28 29 26 24 26 27 26 17 20 34 19 26 37 34 25 23 23 16 20 20 12 7 8 11 13 17 19 19 21 22 23 21 21 21 24 26 28
14 9 9 10 15 19 19 19 23 26 29 30 30 27 29 26 26 20 17 19 23 24 23 23 29 28 24 22 20 18 16 12 10 11 13 16 15 13 18 20 20 17 17 19 23 24 25 27 29
13 14 8 7 11 15 18 18 17 19 19 15 15 14 16 18 24 22 14 16 18 20 15 18 22 21 17 18 19 16 15 15 13 11 11 13 15 17 18 15 15 18 20 22 24 26 28 30 33
15 17 14 15 14 12 13 17 10 6 10 9 10 15 12 31 22 18 18 14 15 20 16 15 15 14 15 15 16 16 13 10 8 6 11 13 15 12 11 14 18 19 21 24 27 30 33 35 38
13 14 15 17 18 17 14 3 9 8 11 11 6 15 14 16 17 17 19 22 21 17 17 17 17 16 12 12 9 10 14 10 7 9 11 9 8 10 13 17 19 21 26 29 33 36 38 40 42
11 9 12 20 17 14 11 12 10 11 11 14 16 15 20 19 20 24 21 18 20 19 17 15 15 17 18 18 15 12 10 8 8 8 7 8 12 13 17 19 24 28 30 34 37 40 41 43 45
15 13 7 9 17 12 13 11 9 11 11 12 14 14 15 15 14 14 14 16 15 16 18 16 15 14 11 10 9 9 8 7 6 7 9 13 15 17 20 25 29 32 35 38 41 43 45 46 48
13 12 5 14 14 14 12 11 9 9 8 8 8 10 13 15 12 11 10 8 8 8 8 8 9 8 8 8 7 7 7 7 9 12 14 16 19 23 27 30 34 37 40 43 46 47 48 49 50
6 9 11 13 19 15 12 12 7 5 9 7 7 8 9 7 7 9 10 10 9 9 10 11 9 9 9 10 8 7 8 9 12 15 18 21 24 28 31 35 38 40 44 47 49 50 51 52 54
13 14 14 16 15 15 13 8 7 6 9 9 6 4 7 9 9 7 6 6 6 7 8 8 9 10 9 8 8 9 10 12 15 18 22 26 30 33 36 39 41 44 47 49 50 53 55 55 56
8 9 12 12 11 8 9 4 4 7 13 6 4 7 8 6 4 8 10 10 11 12 11 11 12 9 8 10 11 12 13 16 19 24 27 31 35 38 40 44 46 48 50 48 50 52 54 56 59
8 6 11 12 12 12 6 7 7 8 9 10 7 10 12 11 9 8 10 8 13 14 12 11 12 12 11 13 15 16 18 20 24 28 32 36 39 42 46 48 50 51 51 50 57 59 61 60 60
10 10 11 14 18 14 8 5 3 3 6 11 14 13 17 16 15 15 15 14 15 14 12 11 10 13 12 14 19 20 22 25 31 32 36 40 43 46 49 50 49 50 52 54 60 65 67 65 64
15 12 13 14 16 15 14 14 7 11 8 7 9 6 18 17 19 20 18 16 15 13 13 14 12 14 14 16 19 23 27 32 33 36 40 44 47 49 49 52 51 52 58 60 64 68 69 66 66
23 18 14 17 17 17 19 19 12 17 18 13 9 10 13 15 19 18 17 15 15 16 18 14 10 14 16 20 24 26 32 34 38 43 45 48 49 48 50 51 47 57 61 65 68 68 68 69 69
22 20 20 21 21 22 20 22 17 13 16 16 15 14 14 13 18 16 14 14 14 16 19 11 14 18 21 25 28 33 36 38 44 47 47 45 48 49 50 45 48 60 66 65 67 68 70 70 72
25 24 23 21 23 22 19 19 19 15 12 16 19 19 18 20 18 15 16 16 17 19 18 19 21 24 27 31 35 38 40 45 48 48 46 49 53 53 53 52 56 63 63 64 68 69 71 72 73
27 26 23 24 24 23 15 12 18 15 18 18 21 22 23 23 22 20 20 20 20 22 24 22 26 30 32 35 40 43 47 47 46 50 52 54 56 59 59 57 59 62 64 66 68 70 71 73 76
34 32 27 27 24 22 20 16 14 17 18 19 20 22 22 23 23 24 23 24 25 27 25 29 33 35 38 41 43 45 44 47 49 50 48 43 57 68 62 63 64 64 66 68 69 71 73 76 79

GFSSGP_500_spd_069.txt.gz
Wind_Speed
27 18 16 22 22 22 28 32 33 35 41 33 36 36 29 34 35 35 34 35 36 35 31 27 26 24 21 23 28 28 26 24 22 22 22 22 22 19 16 11 8 6 7 9 11 12 12 12 13
24 13 12 18 19 19 21 27 28 27 32 37 39 35 31 29 30 29 35 35 32 36 31 27 21 19 20 21 23 25 30 26 22 23 24 23 25 21 18 12 10 7 8 9 10 11 12 13 15
19 9 10 14 15 14 15 21 32 35 37 29 26 28 24 28 23 28 34 32 29 23 23 19 20 25 25 25 27 28 29 27 25 23 27 26 26 25 18 15 12 8 9 10 11 12 14 14 18
13 5 6 10 9 11 13 18 25 28 27 22 24 16 19 20 30 16 21 22 23 21 21 25 26 27 28 28 27 29 28 26 25 24 28 25 27 25 17 17 12 10 11 12 13 13 14 18 21
9 4 5 7 11 11 14 19 19 20 22 18 19 17 20 17 18 18 19 19 20 21 22 24 25 29 28 25 26 28 27 27 26 27 28 31 27 25 20 17 15 13 15 14 14 14 16 20 21
5 5 5 10 13 14 16 18 18 13 15 20 23 26 23 20 20 21 21 21 23 25 26 25 25 26 28 27 28 28 28 31 30 35 28 33 28 15 15 18 15 16 14 14 15 18 19 18 20
4 6 6 11 14 15 15 14 15 15 13 18 21 20 21 25 25 26 25 23 26 26 24 24 22 24 29 30 27 25 26 26 32 29 26 32 25 18 20 18 18 14 14 13 17 21 20 22 24
4 9 8 13 16 14 18 13 10 16 16 17 19 22 22 20 20 21 20 23 26 24 20 24 27 28 29 34 28 30 31 29 35 30 26 24 17 21 18 13 13 12 14 16 22 21 24 25 27
3 10 10 12 15 18 19 17 6 11 18 16 18 22 21 20 22 24 25 23 23 26 26 29 44 31 49 44 40 28 31 40 33 29 26 24 24 20 12 14 8 11 15 21 23 25 26 26 25
5 9 13 13 16 19 19 18 15 8 13 17 20 20 20 21 24 24 24 22 23 29 33 31 26 32 35 48 37 30 36 38 36 29 26 17 15 15 16 9 14 17 20 21 19 25 24 20 19
8 7 12 13 13 17 14 10 16 17 20 16 11 18 25 24 24 24 28 26 27 30 36 34 35 39 33 39 42 42 38 35 29 21 23 18 14 9 13 16 17 17 19 22 23 20 16 19 21
10 6 4 6 9 12 15 18 17 18 22 25 23 24 26 27 26 25 27 28 28 28 33 34 34 37 23 29 37 41 38 22 19 18 18 12 9 12 16 16 16 16 21 19 14 17 21 22 23
12 6 3 3 4 6 13 15 16 20 27 26 27 28 27 29 28 28 26 27 28 29 34 39 27 35 32 35 29 21 19 23 21 15 12 13 17 17 16 15 17 16 12 14 17 19 21 25 27
6 11 9 6 6 8 10 13 13 19 19 20 17 16 19 22 24 26 29 20 17 24 23 23 20 24 27 26 21 21 21 17 14 14 15 17 16 16 14 14 13 11 15 18 18 21 25 28 31
8 9 13 13 10 13 10 10 13 11 13 10 9 9 14 14 15 13 14 17 10 11 13 13 18 33 35 14 16 16 15 15 16 14 13 10 13 14 13 10 11 15 18 20 23 26 29 31 34
8 6 10 13 14 12 13 8 4 4 7 4 5 7 17 21 21 21 22 19 18 13 12 14 12 12 15 15 14 16 15 15 13 12 12 14 12 11 10 12 15 18 20 25 29 30 33 36 38
6 6 9 8 10 8 6 7 8 3 8 10 17 14 19 20 15 18 22 19 21 18 17 14 11 12 12 13 13 16 15 14 12 12 13 12 9 11 13 16 19 22 26 29 32 34 37 39 42
7 9 7 3 5 8 11 11 10 7 8 7 9 14 18 18 18 18 19 17 16 17 16 13 12 13 15 17 16 14 15 15 14 12 12 11 11 13 17 20 24 28 30 33 35 38 40 43 44
7 5 10 12 7 6 11 8 9 9 5 7 8 11 12 11 11 12 14 12 11 11 11 13 13 14 15 15 17 17 16 15 14 13 11 11 14 18 21 25 28 31 35 37 39 42 44 45 45
8 7 8 11 12 14 12 10 6 7 8 5 5 7 10 11 11 13 13 14 14 14 15 16 16 16 17 17 17 17 16 15 14 12 12 14 18 22 25 28 32 35 38 40 43 45 48 50 48
6 7 9 7 8 13 10 8 7 6 7 9 4 3 4 8 13 14 15 15 15 15 14 14 13 13 12 14 15 15 15 15 14 13 15 17 22 26 29 33 35 38 41 43 46 46 49 49 53
5 4 3 5 8 11 9 9 7 8 9 5 3 6 8 8 9 9 8 10 11 10 10 10 11 12 14 15 13 14 15 18 19 15 18 21 25 30 34 37 39 41 44 45 49 48 48 49 52
7 8 9 11 10 8 6 7 13 8 11 7 9 11 12 12 12 11 11 9 10 11 12 13 13 13 13 16 16 17 18 21 18 16 23 25 30 34 37 40 43 44 44 49 49 48 52 56 59
12 12 10 12 13 11 11 7 8 9 13 14 16 17 17 19 17 17 15 14 15 15 14 14 15 16 15 17 19 19 22 24 18 22 27 28 34 39 42 43 43 46 49 52 52 53 55 61 64
18 15 13 13 13 12 12 10 9 9 10 12 11 14 16 24 22 21 22 21 15 18 17 17 18 18 18 21 19 21 24 25 24 27 32 31 41 42 43 41 44 48 53 49 53 58 62 66 66
23 22 19 16 13 12 13 14 11 13 15 15 11 13 13 15 17 20 23 22 18 17 18 20 21 24 18 21 20 22 24 27 27 34 34 40 44 43 42 45 48 52 50 53 62 60 61 64 66
24 24 23 24 21 19 16 16 16 17 15 12 15 14 11 14 18 21 21 21 18 17 18 20 24 17 17 22 24 27 28 30 33 31 39 46 46 41 45 51 54 55 57 64 61 62 64 66 67
26 25 24 26 25 22 18 14 16 16 15 13 16 19 17 17 16 19 22 23 22 22 20 20 22 24 23 25 28 30 32 34 35 36 41 42 39 46 49 54 50 35 65 70 65 66 67 68 69
26 29 31 30 27 26 22 16 15 11 16 16 17 19 21 21 20 20 23 24 24 23 24 25 26 30 29 31 33 35 37 39 36 33 44 42 49 51 51 49 59 62 71 67 67 68 69 69 71
28 29 32 33 30 31 26 20 17 15 14 17 17 21 22 24 25 24 24 26 26 26 28 29 29 31 36 36 36 39 39 35 35 40 41 52 46 50 55 61 63 70 67 68 69 70 71 71 73

GFSSGP_500_spd_072.txt.gz
Wind_Speed
37 27 24 21 19 20 17 19 30 36 40 47 37 37 41 38 34 33 31 35 35 33 34 33 30 28 28 26 28 27 28 26 21 19 18 17 15 14 15 12 12 14 12 12 11 9 9 9 10
28 23 20 15 15 12 11 24 26 33 29 32 44 40 37 37 36 34 36 35 36 36 34 35 33 29 27 28 27 24 26 26 24 19 21 20 16 13 15 15 15 16 14 13 12 10 8 10 9
22 20 15 11 10 9 14 21 22 25 27 25 35 32 38 31 35 40 40 40 38 35 36 32 29 28 30 28 24 21 23 24 22 21 22 22 20 17 17 16 17 18 16 15 13 9 7 8 12
19 17 9 5 7 10 16 20 20 20 21 24 21 38 43 33 28 29 29 32 30 29 37 24 22 26 26 29 26 26 25 25 20 20 21 23 21 21 18 19 20 21 19 17 11 9 8 12 15
16 10 4 3 6 14 16 12 15 16 17 19 28 27 18 29 24 24 24 17 26 26 22 24 25 29 30 30 29 29 27 24 21 20 22 24 24 25 21 22 27 23 20 15 11 8 8 13 16
11 4 4 4 8 15 12 3 7 7 12 18 20 23 18 6 16 14 17 19 22 23 25 25 26 25 26 26 27 27 27 26 21 20 19 25 27 28 21 25 25 25 19 13 10 9 11 16 17
5 6 8 7 10 11 11 6 7 9 9 13 19 16 15 16 16 17 17 19 17 20 20 23 24 26 26 26 26 30 32 27 19 19 24 22 28 28 25 25 23 22 17 15 11 13 15 17 19
3 9 9 6 11 10 12 4 4 8 13 10 13 14 17 17 17 20 20 22 24 22 20 21 25 31 35 28 29 30 35 28 26 25 25 26 31 28 24 27 24 23 14 12 14 18 19 21 23
3 7 10 6 8 13 14 11 14 8 12 15 12 13 15 15 17 18 17 22 21 23 23 23 24 27 32 35 40 35 35 27 22 32 32 28 33 27 27 27 25 15 11 16 18 18 19 19 20
5 7 9 7 8 10 13 13 12 16 10 15 17 16 14 16 19 21 23 25 23 25 26 26 31 39 42 55 48 51 50 43 29 39 39 31 31 22 23 17 11 13 15 17 18 19 21 14 13
8 7 7 7 8 7 9 11 6 15 17 17 15 17 17 20 20 21 20 22 26 27 29 29 31 34 33 33 37 26 25 36 33 34 33 33 21 19 18 14 12 14 17 18 18 18 12 13 15
10 7 4 1 4 5 6 11 13 14 18 20 24 26 21 21 23 24 25 27 26 29 31 35 35 38 38 35 34 42 35 36 37 39 34 18 17 15 12 11 14 15 18 16 16 11 12 14 16
8 11 3 3 3 5 9 11 13 18 21 24 23 23 24 25 24 26 28 27 28 31 34 38 43 38 35 40 44 46 42 43 37 23 21 21 17 14 14 15 14 17 17 13 11 14 15 18 21
7 12 9 6 2 2 9 12 13 15 19 17 16 17 18 20 22 25 27 28 31 31 32 27 41 35 19 20 25 31 31 25 25 24 18 14 12 15 14 17 16 15 11 12 14 17 19 23 26
7 3 12 12 9 8 11 14 15 16 16 15 14 13 15 17 20 22 25 27 28 26 23 28 22 23 21 27 30 30 22 22 19 17 15 15 17 17 18 14 13 11 12 16 18 20 24 27 29
8 3 3 7 10 11 10 11 13 10 7 9 11 13 13 17 17 18 20 18 19 15 8 11 12 21 23 23 18 17 16 15 12 14 16 17 16 16 14 11 11 14 16 18 22 25 28 31 34
5 7 9 10 9 6 6 9 10 4 4 9 3 4 16 17 21 21 28 21 19 11 11 15 18 16 12 11 12 14 13 14 15 17 15 15 15 13 12 12 14 16 19 22 27 30 31 34 36
9 10 11 10 8 12 6 10 8 1 5 5 9 12 12 15 14 23 21 18 18 16 14 12 10 11 11 11 12 13 14 15 15 15 15 18 13 12 12 15 17 20 25 28 31 33 34 37 39
6 7 10 12 9 10 11 15 14 6 1 3 2 5 12 11 11 12 16 18 16 12 12 11 10 11 11 12 13 15 17 17 17 17 17 14 12 12 16 19 22 25 28 31 34 35 38 39 41
2 6 12 11 9 6 12 5 3 4 3 1 2 1 2 5 9 6 8 11 11 12 12 12 13 13 13 14 16 17 19 19 19 18 18 15 14 16 19 22 25 28 32 33 36 37 38 41 43
3 2 3 4 6 7 7 6 7 5 5 5 1 1 2 3 8 9 9 10 10 11 12 12 13 13 15 16 16 16 18 19 20 20 18 17 17 20 23 25 27 31 34 36 36 37 41 44 44
3 2 1 2 3 3 5 4 11 9 9 5 3 4 5 5 6 6 8 9 9 11 12 12 13 15 16 16 17 18 18 19 19 21 23 21 19 23 28 29 31 34 37 37 36 39 44 42 47
8 4 3 4 3 2 4 10 12 10 11 7 7 9 9 10 11 11 11 11 13 13 14 13 13 15 16 17 19 19 18 18 21 25 25 27 22 27 29 30 35 39 40 37 41 45 47 48 53
11 9 6 5 6 9 10 8 9 11 15 12 12 15 17 16 13 16 16 15 16 16 15 15 16 17 17 18 22 23 22 23 25 28 27 20 25 30 30 34 40 42 36 38 45 49 53 51 59
17 14 9 11 10 7 9 7 12 13 15 17 17 14 16 17 17 21 19 18 20 19 19 18 19 20 20 20 23 26 24 22 19 27 32 30 32 34 32 40 44 38 41 46 49 54 54 57 66
24 21 14 11 10 11 12 7 11 19 21 20 18 18 17 18 18 17 18 20 21 20 21 21 20 19 21 28 27 24 22 21 24 31 37 36 36 35 37 41 40 43 46 50 50 55 51 54 70
22 24 23 22 21 20 18 16 14 16 17 21 18 24 19 17 16 17 20 23 23 20 20 21 21 22 25 23 22 23 23 27 32 35 37 38 40 40 38 42 46 46 51 50 52 61 62 65 74
23 23 23 24 23 23 22 17 17 17 17 17 19 19 23 21 18 17 20 22 22 20 21 22 23 24 25 24 24 27 30 32 36 39 40 39 35 36 44 44 47 43 41 50 64 67 70 72 71
25 24 22 24 26 26 26 19 17 18 16 14 17 21 22 22 22 23 20 20 21 21 24 25 25 26 28 29 31 34 36 39 40 39 35 35 35 37 43 43 53 42 51 61 65 70 72 72 71
27 28 27 28 26 28 30 26 25 22 20 18 19 21 23 25 23 23 24 25 26 27 27 29 32 32 34 32 36 39 39 40 38 38 35 31 34 42 47 57 56 56 57 71 70 74 72 71 72

GFSSGP_500_spd_075.txt.gz
Wind_Speed
54 48 35 21 18 12 13 15 21 24 33 27 42 57 32 45 50 43 43 37 38 35 34 30 28 28 27 26 25 27 27 26 25 23 20 18 18 14 13 11 12 12 13 15 14 12 10 9 8
51 39 23 18 10 5 11 16 13 20 33 31 34 37 45 41 52 5 35 37 37 37 36 31 29 27 28 28 28 28 27 26 24 23 19 20 21 19 13 12 14 15 17 17 15 13 11 7 8
41 25 18 9 9 10 12 18 13 19 31 29 24 29 35 58 29 26 25 27 30 28 32 37 34 31 33 35 33 29 27 23 20 18 19 20 20 19 16 17 19 19 20 19 15 13 10 8 7
27 18 14 7 6 13 19 17 25 21 23 19 22 25 30 46 31 34 34 34 35 34 35 36 35 35 28 30 31 31 27 23 21 16 17 17 19 20 22 23 22 23 22 20 17 13 10 8 9
17 13 6 9 11 14 18 24 21 12 18 14 15 21 34 34 38 36 36 31 24 32 38 40 40 34 28 31 30 27 27 26 25 16 17 17 20 21 24 26 25 26 24 21 16 13 10 8 10
13 8 4 9 7 15 23 19 6 9 14 7 13 17 25 28 39 47 29 26 31 32 37 40 36 38 33 31 31 30 30 28 27 20 19 19 19 19 25 28 28 26 26 22 16 12 10 11 13
9 4 8 12 11 17 9 15 5 7 8 6 20 19 12 13 4 41 35 30 34 35 37 35 35 32 25 26 27 28 27 26 26 23 23 22 29 30 23 27 28 27 27 20 17 13 13 15 15
9 5 6 9 8 21 6 19 15 5 11 20 5 9 17 5 5 7 17 24 25 29 29 33 27 25 24 27 30 27 25 24 27 31 30 24 27 30 25 26 29 27 24 20 17 15 17 17 19
8 9 7 10 9 16 10 14 13 16 12 16 14 9 11 4 12 13 19 22 20 21 20 15 18 23 25 29 36 35 31 25 27 26 26 30 29 26 26 33 27 24 16 15 13 17 17 17 17
3 4 6 16 13 13 13 11 12 11 18 15 17 17 13 11 14 16 17 21 20 17 19 22 22 23 26 36 40 44 45 38 37 43 41 37 31 28 28 31 17 24 18 19 16 16 16 17 13
4 5 12 17 17 13 11 11 13 7 10 17 19 18 18 16 17 18 18 18 21 23 23 23 26 32 26 40 23 38 30 36 22 29 49 41 33 32 26 16 14 17 18 16 15 15 17 14 13
12 6 14 11 13 8 7 10 10 14 15 18 19 21 23 16 18 20 23 22 21 24 26 27 28 29 27 29 31 30 30 31 34 26 40 37 35 29 22 16 16 15 15 14 15 16 15 13 14
12 8 14 11 7 7 6 9 10 13 17 20 23 20 20 23 23 20 22 24 27 26 27 29 29 31 31 37 31 36 33 33 39 33 36 42 25 21 19 18 15 14 15 16 17 12 14 14 16
9 12 11 11 9 11 9 13 13 14 16 17 15 15 17 18 21 21 24 25 28 28 29 30 28 27 40 39 33 29 35 38 36 41 49 32 24 20 15 13 14 15 17 17 13 14 14 16 21
5 12 13 8 10 11 11 14 9 13 16 13 13 13 17 20 22 23 25 27 27 27 27 31 38 40 46 44 39 30 23 34 42 25 26 24 16 13 14 16 17 17 15 14 14 14 16 21 24
7 7 9 19 8 16 11 15 13 16 14 15 13 13 16 22 24 24 25 25 25 27 29 28 27 23 24 35 36 29 30 38 28 26 19 15 13 12 14 14 15 14 14 14 15 18 22 25 28
8 10 7 15 16 17 8 8 10 15 12 12 15 9 17 25 27 22 22 23 21 19 20 19 13 23 18 15 17 20 16 15 16 14 13 9 12 13 16 16 15 15 15 15 18 23 26 30 32
11 6 16 11 16 13 7 6 19 14 13 11 6 8 11 19 23 20 19 27 24 16 14 9 20 14 11 11 13 15 10 10 10 9 10 12 16 18 17 16 15 16 17 19 23 26 30 32 35
15 14 13 10 12 17 9 5 12 19 12 8 12 12 14 14 12 15 22 21 19 15 13 14 17 11 11 10 10 9 9 10 11 12 14 17 18 15 17 17 16 18 20 23 26 29 33 35 37
8 9 9 9 16 8 6 5 10 14 7 6 7 8 10 11 13 14 13 13 11 11 8 5 6 6 3 3 6 10 12 14 14 16 17 17 17 19 18 19 21 21 24 26 30 33 35 37 36
4 6 9 6 11 2 4 2 9 15 13 7 5 7 6 6 6 6 7 4 3 2 2 3 4 5 7 8 10 12 15 16 18 17 18 19 21 21 23 23 24 26 27 29 33 34 36 38 38
6 3 2 3 3 12 5 13 5 13 16 11 7 7 6 6 4 4 5 4 3 3 4 7 8 9 9 12 15 16 18 18 18 18 19 22 24 27 26 25 27 30 31 32 36 36 35 35 40
10 7 3 3 4 4 8 4 15 8 14 13 9 9 10 11 9 7 7 8 7 8 10 10 11 12 15 16 17 18 20 22 20 20 21 22 26 35 35 27 30 29 32 36 38 33 35 38 43
12 10 6 5 6 8 5 6 9 9 7 11 11 14 13 14 15 13 13 12 11 13 13 14 14 15 17 19 20 22 23 24 25 21 23 27 27 30 33 27 32 35 37 37 36 36 39 43 45
12 10 5 10 10 8 9 12 12 7 18 20 20 18 22 19 15 14 15 13 14 16 15 16 17 18 19 21 23 24 26 26 27 27 26 21 27 33 32 33 36 38 40 40 39 42 42 43 46
17 14 10 9 13 15 15 11 9 19 21 17 18 23 23 23 18 16 17 15 15 16 16 17 19 20 18 19 20 20 31 28 28 20 28 30 31 34 39 41 42 42 41 43 45 49 49 46 47
16 21 16 22 22 19 15 13 15 18 16 18 21 26 25 24 20 19 18 18 16 17 17 17 19 19 19 21 22 21 21 21 24 26 31 34 38 41 43 45 42 39 41 46 46 47 52 49 54
25 20 21 22 19 19 12 15 14 14 18 20 17 22 23 23 24 21 20 20 21 19 20 20 20 21 23 25 25 23 26 29 32 34 37 42 46 47 47 43 39 43 45 48 50 48 52 58 65
21 24 26 17 19 15 15 13 19 17 17 16 18 16 19 22 23 26 24 23 23 23 22 22 25 27 28 30 31 30 32 34 34 36 42 46 47 48 46 38 41 45 46 41 51 49 55 57 71
18 22 22 24 22 24 24 24 24 27 23 24 23 22 22 24 24 23 24 24 24 25 27 27 29 32 34 36 36 35 35 37 41 43 42 45 46 45 39 36 47 46 54 63 65 56 64 75 80

GFSSGP_500_spd_078.txt.gz
Wind_Speed
49 50 50 41 25 16 9 11 15 21 24 30 38 36 30 42 44 48 50 51 45 35 34 35 31 31 28 26 26 27 26 28 26 25 23 22 19 16 12 12 12 13 14 15 15 14 13 13 12
48 48 41 25 14 6 10 19 21 16 29 31 32 39 39 52 53 46 52 47 20 25 40 32 31 29 29 31 28 27 29 28 27 25 21 20 20 17 15 15 14 15 16 17 16 16 15 13 11
47 43 26 18 8 5 9 22 16 16 29 32 27 36 43 57 52 61 63 47 17 24 33 34 35 33 31 32 31 31 32 31 29 24 17 18 17 18 19 17 18 18 18 19 18 18 15 11 10
43 25 12 13 9 10 20 26 32 33 37 38 37 28 38 37 34 45 38 50 13 29 36 39 36 36 36 34 32 33 35 33 27 24 18 16 16 17 21 21 21 21 21 21 20 19 15 12 10
28 13 11 11 16 18 22 35 31 36 37 35 42 22 28 12 30 34 51 16 23 34 37 38 39 36 34 34 35 33 29 27 27 24 19 19 16 17 20 21 22 24 23 23 23 17 15 10 10
18 9 4 10 16 18 25 31 13 23 29 24 23 17 15 13 15 25 38 38 31 31 37 41 39 36 34 34 30 28 31 28 27 26 24 23 20 20 18 18 24 26 26 26 24 16 13 11 8
14 5 4 14 15 27 31 28 11 19 26 27 14 6 8 13 20 27 35 43 40 42 51 46 44 40 38 35 36 30 28 28 29 29 28 24 21 23 26 29 30 32 25 25 22 21 14 12 15
11 5 7 12 11 29 27 25 16 22 26 23 24 9 11 18 15 22 35 39 48 36 25 40 34 38 37 33 32 30 30 30 31 30 25 26 23 27 24 24 27 25 26 28 20 16 16 16 16
8 4 4 9 8 29 24 25 22 24 17 18 14 14 5 11 12 17 12 39 39 35 23 19 40 34 29 29 28 31 30 32 32 28 21 18 24 28 27 26 28 28 32 24 16 15 17 16 14
6 2 12 5 15 27 21 22 21 14 18 19 18 5 13 12 15 13 13 17 10 9 8 9 13 21 28 28 27 30 33 34 30 34 25 24 29 36 35 28 29 25 23 12 14 17 16 14 15
6 6 14 19 21 26 19 19 15 16 27 18 12 14 9 15 19 17 14 15 8 9 11 12 13 16 16 20 23 26 27 36 22 25 26 24 25 32 39 31 29 25 17 15 19 16 14 15 14
15 11 9 20 21 16 15 15 13 14 20 20 18 18 14 17 19 18 14 16 15 13 11 14 15 16 17 18 16 27 26 19 24 22 29 30 27 28 39 34 21 15 14 17 14 13 13 15 12
14 13 11 19 14 16 15 12 10 20 10 15 18 16 16 17 19 21 18 16 17 17 18 18 19 20 21 21 23 23 25 27 23 29 30 30 28 24 41 26 19 18 16 14 13 13 12 12 13
12 13 9 2 18 11 15 21 15 23 17 11 17 12 15 15 19 20 20 20 18 20 21 21 21 23 25 24 25 27 26 28 25 34 30 30 25 26 19 18 21 17 13 12 13 17 12 14 14
13 13 10 15 7 10 16 20 21 21 19 15 20 18 14 18 21 23 22 20 22 20 22 24 23 26 27 23 30 32 31 36 27 23 24 23 15 20 22 17 12 11 11 17 16 13 14 14 17
5 5 15 15 15 9 17 18 14 18 20 16 22 24 22 21 24 23 25 23 22 22 24 23 23 25 26 23 40 40 39 26 24 24 19 20 18 21 20 16 16 16 17 15 14 14 15 16 21
3 7 14 15 15 22 15 17 12 2 18 19 19 22 23 24 20 24 26 23 22 20 17 15 14 18 17 17 21 27 34 34 18 16 24 21 17 14 14 14 15 15 15 13 14 17 17 21 24
18 7 10 6 23 16 14 7 20 23 22 24 15 14 16 18 18 22 24 25 20 19 15 15 11 14 18 19 18 14 10 13 20 16 15 12 10 10 12 14 16 14 13 16 18 19 20 24 28
14 12 13 12 19 22 17 4 21 18 14 21 16 13 17 21 12 15 24 21 16 18 22 11 10 8 4 5 10 17 16 14 8 6 6 6 9 10 14 19 17 18 17 19 21 22 24 28 32
14 15 8 11 14 13 9 3 11 16 12 17 19 8 12 14 20 22 14 9 13 13 8 13 9 10 7 7 7 7 5 4 4 7 9 11 13 15 16 18 19 20 21 22 24 26 27 30 34
14 12 6 12 16 14 7 6 5 24 12 17 19 11 7 10 11 13 16 14 13 8 6 8 7 6 4 5 6 4 4 6 9 12 12 13 15 17 23 23 23 24 23 25 29 31 31 35 37
14 7 7 8 10 9 11 4 9 18 14 20 13 14 10 10 12 10 9 6 6 5 5 7 6 6 6 6 6 7 9 10 13 15 17 16 17 19 25 27 26 29 26 26 30 30 34 37 40
11 15 9 8 6 7 8 3 10 15 13 17 22 15 9 10 12 9 7 9 10 9 9 9 10 10 11 11 10 11 12 14 16 18 19 18 19 21 26 29 24 38 34 29 28 33 35 37 38
14 14 12 7 10 9 6 9 16 11 6 13 21 17 14 12 12 12 8 8 7 7 10 11 11 11 12 14 14 15 15 17 20 22 21 19 21 27 29 30 29 26 33 33 35 42 43 43 45
16 16 15 13 13 4 12 13 11 20 11 15 18 24 24 22 15 11 11 12 7 7 7 7 9 12 11 14 16 16 17 16 19 22 22 25 26 27 30 29 29 35 37 37 40 46 43 42 47
18 17 18 11 6 14 20 10 5 7 14 15 15 17 23 28 25 20 16 11 11 8 9 10 11 13 13 11 14 14 17 19 19 17 23 25 27 31 32 34 38 42 43 41 46 39 41 44 49
17 23 15 18 20 17 13 6 5 16 23 23 17 17 17 20 28 25 22 20 15 14 12 13 14 13 14 15 15 18 20 22 19 19 22 26 31 34 36 39 44 45 46 48 43 41 45 48 49
26 16 18 23 25 18 18 6 20 21 10 16 14 22 18 16 15 22 24 23 21 19 20 20 19 19 19 20 21 21 24 25 24 25 28 31 33 36 41 42 45 46 38 52 39 44 47 51 49
28 29 26 24 17 20 19 13 25 24 17 9 15 24 21 14 13 18 20 25 27 28 22 20 23 24 25 26 26 28 27 31 30 31 35 34 37 42 42 44 43 45 38 49 48 48 48 59 64
27 24 24 29 24 18 24 19 16 20 20 24 32 30 32 28 20 18 22 23 24 26 26 22 24 27 29 30 30 30 33 34 34 36 37 37 39 40 42 45 38 44 39 40 46 56 56 63 66

GFSSGP_500_spd_081.txt.gz
Wind_Speed
39 41 45 46 40 22 12 4 3 1 16 24 23 29 36 37 41 43 45 38 35 31 40 49 42 30 32 32 33 29 25 23 24 26 26 28 27 27 21 18 18 16 15 14 14 15 13 14 13
38 40 43 35 18 3 7 16 14 18 24 27 33 31 33 37 34 37 44 48 42 44 42 33 34 34 33 33 33 30 27 26 27 29 26 27 25 24 21 20 18 16 17 16 14 15 14 14 14
38 40 34 16 2 7 11 20 19 26 27 27 28 35 34 38 38 36 38 43 53 57 54 40 37 40 36 35 33 30 28 30 31 30 25 24 22 20 20 19 18 19 18 17 17 16 16 16 16
38 34 23 4 9 10 20 29 26 32 36 39 39 39 39 42 40 48 46 53 55 56 41 51 38 45 36 32 32 32 32 31 29 29 22 22 19 18 17 17 18 20 21 20 19 18 18 17 17
36 23 11 4 8 19 25 27 28 30 34 32 33 42 44 49 40 41 33 44 53 48 38 24 45 40 35 35 36 33 31 30 31 32 27 22 21 18 17 14 16 18 21 23 21 21 19 18 15
21 13 10 3 10 19 25 32 33 30 26 28 29 28 18 25 14 17 25 30 40 24 32 32 35 36 37 40 35 34 31 31 31 27 24 26 24 20 18 15 14 16 18 24 25 22 21 16 15
17 12 8 7 5 16 23 30 26 25 28 27 19 10 6 9 8 9 17 21 30 33 32 31 37 31 42 41 37 32 30 28 25 28 28 27 26 23 21 20 20 24 27 27 24 21 22 19 19
14 12 6 2 7 16 24 31 26 33 29 22 24 13 11 13 8 9 18 28 27 41 31 49 37 44 43 42 34 30 30 33 28 28 27 28 27 25 21 23 20 24 27 26 22 22 27 14 15
11 11 4 2 5 17 27 27 27 34 26 24 24 32 24 11 8 9 15 20 23 26 34 21 36 38 53 42 37 32 31 32 29 30 29 27 23 22 28 22 25 23 22 20 25 27 13 19 18
9 9 9 7 17 21 25 29 32 31 20 21 25 27 28 10 6 10 10 13 11 20 31 21 5 44 39 34 30 28 28 28 24 28 28 25 28 14 16 22 24 26 24 24 15 14 17 18 16
9 5 12 11 14 27 29 23 17 18 18 17 22 20 19 21 7 10 9 8 8 14 3 18 28 24 29 27 27 20 36 29 19 31 28 21 31 25 17 21 23 27 31 17 16 16 18 17 14
9 7 12 13 18 21 12 16 17 18 17 25 20 19 13 16 12 13 7 6 8 7 12 6 11 8 5 4 3 9 15 24 13 14 16 16 15 16 21 21 23 30 20 16 18 17 17 15 14
13 6 13 15 15 13 12 15 14 21 24 22 24 23 15 15 14 13 9 9 9 10 9 9 8 9 8 12 9 12 10 12 16 17 20 21 22 22 19 20 23 11 18 19 17 15 15 13 12
12 10 13 11 14 14 17 13 16 18 12 16 22 26 16 16 14 14 13 10 12 10 10 10 11 11 15 15 11 13 20 15 16 22 23 22 23 21 17 17 15 25 22 17 16 15 14 13 14
12 11 7 7 12 7 13 16 9 14 18 20 22 25 24 19 17 17 16 14 14 13 13 11 10 14 15 16 15 17 20 33 27 25 20 20 19 11 14 17 25 25 17 16 14 14 14 15 17
9 4 6 10 9 9 17 18 17 16 14 16 18 21 25 33 22 19 15 14 13 16 12 14 14 16 17 18 16 16 16 26 31 25 19 19 15 10 16 24 19 17 13 14 13 15 16 17 18
12 5 8 10 12 13 13 17 6 7 16 22 24 23 24 31 28 14 13 12 13 15 16 13 12 13 13 11 10 17 17 19 23 25 27 13 13 21 23 19 16 14 12 15 17 17 18 20 20
12 4 12 15 16 10 18 19 9 9 9 17 21 19 21 25 26 7 8 9 13 15 17 13 10 10 9 9 8 13 15 17 22 23 13 18 18 19 19 19 17 15 16 18 18 19 20 21 22
14 5 15 11 14 17 18 15 14 8 8 18 24 18 16 20 25 26 12 9 9 11 13 14 14 10 4 3 4 2 5 16 17 14 17 14 13 13 11 10 13 15 17 18 18 20 20 23 26
16 11 12 13 9 16 15 10 17 13 15 12 22 14 14 15 19 22 23 19 13 3 5 10 5 5 14 13 10 13 14 12 14 11 7 6 6 7 10 17 17 18 18 19 19 22 25 26 30
15 10 9 12 19 20 14 6 13 7 10 9 17 10 10 13 14 14 16 18 18 16 15 16 14 12 9 7 8 8 6 5 5 4 5 6 7 10 14 13 18 17 19 24 24 26 28 29 27
17 14 10 14 12 14 8 4 11 10 8 3 5 5 11 12 12 10 11 11 11 9 10 11 10 9 7 6 5 5 2 1 2 5 7 7 11 15 18 18 21 24 26 29 31 33 33 27 28
17 18 16 13 10 11 10 8 10 12 11 11 5 7 9 10 13 5 7 7 7 7 7 5 5 7 6 6 6 4 4 5 7 8 11 13 13 15 18 19 22 28 27 30 31 31 38 40 40
22 20 15 16 13 13 10 14 12 12 11 10 12 12 12 8 10 9 4 7 7 4 1 1 2 3 4 3 3 3 4 4 4 6 11 13 15 18 20 23 24 27 30 28 30 34 34 35 37
24 23 18 21 19 12 19 12 8 12 10 10 11 12 12 9 3 6 9 8 8 5 6 7 7 7 8 9 8 7 7 5 9 13 14 12 14 16 20 21 24 27 31 33 37 39 40 41 44
23 24 21 21 20 19 20 13 13 13 7 13 17 18 17 14 13 5 4 8 10 8 8 8 8 9 9 11 11 10 11 12 11 12 15 14 15 19 21 25 29 30 33 37 37 40 44 44 42
23 28 13 23 24 22 12 1 16 13 9 19 22 20 23 19 18 15 8 8 11 11 11 10 10 11 10 12 13 14 15 18 17 16 17 17 19 23 26 29 32 34 37 40 42 45 43 52 45
29 23 24 27 26 24 12 12 17 20 23 24 25 26 18 17 24 21 15 9 12 14 16 16 17 17 17 15 15 17 20 21 22 22 19 22 24 28 30 33 35 37 37 39 36 39 40 39 43
28 32 31 22 29 29 24 18 21 20 19 24 20 17 18 24 19 25 25 21 18 14 16 17 17 21 20 21 19 19 22 28 27 27 27 26 28 29 33 37 38 37 36 37 35 34 36 41 42
29 29 31 31 24 28 27 20 27 19 19 16 18 23 25 31 23 18 22 29 28 19 18 14 18 20 23 25 24 21 23 30 34 33 29 29 30 33 37 36 38 37 39 37 36 37 39 43 45

GFSSGP_500_spd_084.txt.gz
Wind_Speed
35 34 36 37 33 20 11 12 12 10 7 14 16 19 20 27 29 30 36 39 38 36 39 49 34 38 33 30 32 28 28 28 27 24 19 20 20 20 20 19 22 21 20 19 17 15 14 12 12
33 32 35 32 24 13 13 16 6 8 13 16 24 27 28 28 31 37 35 34 44 37 41 45 36 38 34 32 30 30 30 28 25 24 23 23 21 20 27 25 24 22 22 21 20 15 14 14 12
30 31 31 23 10 12 12 9 12 11 19 21 27 31 32 33 35 37 41 40 34 45 42 42 43 33 40 35 37 35 32 29 27 27 25 24 20 23 23 21 23 22 21 22 19 19 17 14 12
28 28 21 10 11 11 11 9 12 21 25 27 29 31 33 36 35 41 39 40 38 41 52 47 47 48 32 35 39 37 34 31 30 29 26 22 21 22 20 19 21 21 23 22 22 19 17 15 13
27 26 16 8 15 14 13 12 17 22 27 27 35 34 37 44 45 39 40 42 44 48 54 55 58 55 52 38 41 38 35 33 30 30 32 30 21 20 22 19 18 18 19 21 22 21 20 19 16
26 20 14 11 17 16 15 18 22 26 24 27 29 31 30 22 18 31 42 45 43 52 54 60 58 60 52 53 43 39 37 33 31 32 28 26 25 24 25 21 19 17 19 20 19 22 24 25 19
25 14 12 11 16 16 12 18 23 23 22 25 27 25 26 20 21 11 15 16 23 40 48 54 56 54 61 53 47 37 39 37 34 30 28 28 23 25 26 24 23 24 21 22 23 25 28 25 22
23 12 14 14 15 15 13 22 25 26 20 18 19 22 27 27 30 11 12 12 9 15 21 33 43 45 52 49 53 45 44 35 31 26 25 23 27 27 27 26 24 22 22 28 26 29 24 29 31
22 14 17 14 17 19 16 23 29 27 24 23 28 28 25 24 17 10 2 5 11 9 17 34 34 51 51 64 47 40 37 31 29 29 26 23 24 27 26 27 29 28 24 25 26 22 19 19 16
22 18 22 11 14 19 20 21 28 21 19 19 24 25 24 22 17 10 6 6 9 12 16 26 17 43 54 57 44 42 33 27 26 26 26 24 29 28 27 24 19 17 19 23 29 23 18 15 13
24 19 23 12 12 19 18 16 17 17 18 20 22 23 21 17 16 12 11 5 6 9 14 14 5 31 49 52 42 35 32 29 27 24 20 23 27 19 19 23 16 14 18 22 30 21 21 19 16
20 20 22 14 13 15 13 9 9 14 15 16 19 19 22 19 12 10 8 6 2 4 5 13 10 10 23 40 33 30 25 29 29 25 21 24 28 12 11 16 18 20 19 24 24 21 20 18 18
21 22 21 16 6 12 11 7 12 21 19 18 15 20 24 23 18 10 7 6 4 3 3 7 10 2 13 12 18 30 16 16 25 33 19 15 17 22 20 20 19 22 20 18 23 21 19 18 19
21 20 16 12 7 11 12 11 14 11 12 17 20 21 22 26 22 13 9 7 5 2 1 5 7 3 5 6 9 13 16 17 10 13 14 14 16 18 19 19 20 18 20 23 24 22 19 18 15
19 17 13 9 11 10 10 14 9 9 11 15 20 22 20 21 19 18 13 10 9 8 8 8 8 9 9 12 12 14 18 15 26 22 16 17 17 16 18 18 20 17 22 24 20 17 18 15 14
16 14 12 15 5 11 13 13 8 5 4 14 18 20 21 17 19 12 12 12 13 13 14 14 14 13 13 14 16 14 19 15 12 22 26 23 18 19 16 21 20 21 25 23 18 18 17 15 17
14 13 10 15 12 9 5 12 8 7 5 11 17 13 17 21 25 13 7 11 15 14 12 11 11 9 11 14 15 16 14 17 18 20 17 21 21 19 21 17 17 26 20 18 17 17 18 18 19
15 13 15 17 19 5 13 11 11 5 3 10 19 14 17 25 25 13 5 10 11 11 7 8 8 9 9 12 12 20 18 21 15 17 19 23 28 19 18 19 21 20 16 16 18 18 18 18 19
14 15 16 15 19 6 12 14 7 3 1 9 14 14 14 18 20 17 7 7 9 13 9 1 11 10 7 8 8 10 11 16 17 18 21 16 15 17 19 18 19 17 17 19 20 18 19 20 23
16 17 18 15 16 12 12 14 10 5 4 5 8 13 10 15 13 16 16 16 8 8 6 6 9 11 7 4 3 7 11 13 13 17 19 17 17 17 19 14 12 16 19 19 18 18 20 23 27
17 17 16 15 17 14 12 11 13 7 1 2 4 8 7 12 12 9 11 12 16 19 18 12 12 12 9 9 12 11 13 14 16 14 10 10 13 13 11 13 12 18 19 16 18 21 23 25 32
18 18 15 18 16 14 16 11 13 8 4 4 4 7 4 7 11 7 5 6 10 14 16 15 13 14 13 12 10 9 9 9 8 7 7 7 8 8 13 13 13 16 19 20 23 24 26 26 33
21 18 19 19 21 15 15 17 14 12 6 5 2 3 3 2 4 7 5 8 5 9 10 9 9 10 10 12 10 8 7 5 5 5 5 7 9 12 17 17 15 19 19 22 26 31 28 27 28
27 19 23 21 21 20 17 22 14 15 8 6 7 2 2 5 5 5 5 5 9 4 2 4 5 6 7 6 7 8 8 8 6 6 6 6 12 15 17 15 15 18 19 19 22 25 28 32 33
30 26 25 26 24 21 20 23 10 17 15 10 8 3 4 5 5 6 10 5 4 5 3 3 3 3 5 4 4 5 5 7 10 12 14 12 11 15 15 14 16 17 19 23 27 29 33 37 40
32 28 26 27 24 25 25 23 21 21 20 14 13 9 9 4 8 10 9 12 8 5 5 4 5 4 5 7 8 8 9 10 12 14 15 14 13 14 16 16 20 22 25 26 29 33 37 41 43
33 33 20 25 29 30 27 20 21 26 19 16 20 9 10 7 10 10 8 10 12 12 10 9 7 7 8 9 10 12 13 15 16 19 20 19 17 20 22 24 26 28 29 30 33 36 38 36 36
39 29 28 30 34 34 28 25 19 21 17 15 19 20 16 16 15 9 10 10 9 12 14 15 16 16 14 13 14 16 17 19 20 21 23 25 24 27 27 29 31 30 29 34 33 34 35 35 38
41 38 36 30 36 33 29 29 21 20 20 16 21 22 21 16 17 24 22 16 14 14 15 17 18 18 17 15 16 18 20 23 25 24 25 29 33 30 32 30 31 34 35 35 35 33 34 38 39
42 38 33 34 36 33 29 28 30 27 24 24 26 24 20 22 25 21 18 19 18 17 17 17 20 20 20 20 18 19 23 24 30 32 32 35 37 37 28 28 29 31 34 37 34 33 38 42 40

GFSSGP_500_spd_087.txt.gz
Wind_Speed
31 31 30 31 33 31 28 20 18 12 13 10 11 13 17 19 23 22 21 27 26 32 35 33 41 45 45 45 42 34 30 28 20 17 17 17 16 18 16 16 18 16 15 17 18 19 15 12 12
29 28 28 31 30 27 23 19 17 13 14 12 15 18 23 25 23 28 31 30 28 30 34 40 42 40 41 39 41 40 36 24 22 19 19 20 20 17 15 16 19 21 17 17 18 18 15 15 14
26 24 27 28 27 24 21 20 16 17 16 17 16 20 23 28 31 33 36 33 35 34 38 39 38 40 40 40 35 35 33 31 24 24 22 21 21 16 17 17 17 20 17 19 15 18 17 19 16
22 24 26 24 24 22 20 18 19 16 15 13 19 25 29 33 36 38 38 38 37 37 38 39 40 42 38 39 39 35 33 30 27 27 24 22 20 17 16 17 14 15 20 21 19 20 20 19 19
20 24 25 21 22 20 22 22 13 13 12 19 25 27 30 33 36 27 34 40 36 38 40 42 34 44 42 39 40 43 34 33 30 31 25 24 23 19 16 13 17 14 19 18 18 20 20 21 22
19 24 25 21 21 21 20 18 11 14 19 20 18 24 26 29 33 31 22 35 41 37 43 40 43 43 46 45 46 37 46 36 34 25 27 24 24 18 22 24 19 18 19 16 16 19 22 25 24
19 23 25 22 20 20 21 18 15 16 22 22 17 21 25 33 27 21 18 22 32 31 39 47 47 46 47 49 49 51 41 37 40 26 30 27 19 20 22 19 21 21 22 21 20 21 24 27 27
18 22 27 25 21 22 24 17 19 17 22 19 18 21 23 28 24 17 4 6 16 24 25 29 38 45 45 52 51 42 46 42 27 32 33 24 19 23 24 24 22 24 26 27 24 27 32 29 30
17 21 27 26 24 23 24 17 17 18 21 15 19 19 21 18 28 23 4 10 6 12 8 8 16 25 37 42 54 47 58 47 39 43 30 22 22 24 23 27 23 25 28 31 24 27 24 26 22
15 20 25 27 26 25 24 17 12 13 16 17 19 21 17 18 20 21 13 12 8 4 11 6 13 23 30 36 46 42 50 48 42 31 25 26 26 24 24 24 25 25 25 29 30 28 24 22 19
12 19 24 26 24 24 22 15 11 11 13 16 18 18 18 17 17 19 11 6 8 3 4 8 7 16 32 34 42 54 52 39 43 30 28 26 24 25 25 27 27 21 21 21 25 31 28 25 20
17 18 20 20 18 19 16 13 10 12 12 9 15 15 16 17 18 16 10 5 5 2 6 10 5 9 5 28 50 41 43 39 26 26 25 21 20 27 21 21 17 22 23 23 23 25 27 23 20
20 19 19 21 16 15 15 18 16 15 16 11 15 12 16 15 16 19 14 6 3 2 6 10 11 15 16 35 46 51 43 28 25 28 26 23 19 27 25 23 21 21 23 24 26 24 23 23 20
24 21 18 21 15 11 13 15 18 14 16 11 13 15 16 19 19 19 17 9 3 2 4 6 9 14 13 29 40 31 28 27 27 28 33 29 19 22 23 25 24 27 23 22 28 23 23 23 20
23 22 24 17 11 9 11 16 16 12 12 11 12 15 16 20 22 18 14 13 9 6 7 4 8 7 9 9 21 30 20 21 29 18 25 28 23 24 23 25 24 29 26 26 26 24 25 23 19
22 22 25 18 12 7 15 16 16 11 12 7 10 13 17 23 19 12 7 9 13 11 12 9 6 8 11 9 13 13 17 19 27 22 23 24 21 21 20 24 25 25 23 28 24 27 22 20 17
23 23 25 21 15 12 14 15 11 2 7 2 14 12 14 20 18 15 5 7 11 14 12 11 11 10 11 15 17 17 21 23 21 20 23 26 29 25 26 27 27 26 27 23 23 20 20 17 19
24 25 25 20 19 18 18 14 4 5 12 9 12 10 12 18 19 16 8 8 10 13 11 11 12 13 13 16 19 22 23 24 16 22 27 32 30 27 28 26 27 24 23 21 19 19 20 17 18
23 23 27 22 18 22 17 11 5 8 17 12 5 5 8 13 18 17 14 5 9 12 14 10 11 16 13 15 15 18 23 25 23 26 24 29 27 27 28 20 17 19 21 20 18 18 18 19 21
24 24 25 25 21 26 19 10 6 9 16 13 2 4 7 7 10 13 15 9 6 6 14 10 9 17 12 12 14 16 21 33 31 31 28 24 25 21 16 14 17 21 21 18 19 20 21 24 24
22 23 25 32 28 25 15 9 9 6 9 7 3 1 4 8 7 7 8 12 10 9 9 11 12 13 15 16 17 19 21 21 18 20 18 18 20 20 19 19 20 20 17 22 21 25 23 24 26
23 23 27 33 30 24 16 10 13 10 8 7 6 4 3 3 2 5 5 5 6 10 9 9 10 11 12 15 15 13 15 16 17 16 14 14 16 18 17 18 17 17 20 23 22 22 24 26 28
24 31 28 31 35 24 17 17 14 9 10 11 9 7 5 2 1 2 3 4 2 3 7 8 9 7 10 12 12 11 12 11 10 11 12 13 12 11 13 17 19 19 19 21 20 25 27 28 29
29 31 31 35 37 29 18 23 11 16 16 13 13 7 4 4 4 3 1 2 1 4 4 8 8 8 8 9 10 9 11 12 14 14 13 11 11 15 18 23 22 19 19 21 23 25 27 29 29
37 31 34 37 38 30 20 26 12 22 18 15 20 14 8 5 3 1 4 7 7 4 4 6 5 5 4 3 5 4 6 7 7 10 11 11 11 14 18 18 20 20 22 24 24 28 29 31 32
32 34 37 39 37 29 25 29 16 24 24 15 18 21 11 6 5 4 3 4 8 8 7 6 6 8 6 5 4 4 6 8 9 12 15 15 16 17 19 19 22 22 24 26 28 29 31 33 35
35 41 35 38 41 39 31 28 23 25 25 19 21 23 7 6 6 8 6 7 6 9 9 11 11 10 8 7 6 7 8 11 11 15 17 19 18 20 22 24 25 28 30 31 30 31 34 34 39
40 35 40 39 43 41 34 30 25 23 24 19 25 23 18 14 12 13 11 10 12 12 13 13 15 14 14 11 12 13 14 14 16 18 20 22 24 26 27 27 31 34 35 31 33 32 37 38 37
43 43 45 41 43 42 35 31 24 26 24 21 24 25 22 16 14 15 19 21 21 19 15 14 17 20 19 17 14 13 15 16 19 19 22 24 29 33 34 37 39 37 33 37 30 38 37 38 39
43 42 42 45 46 43 39 29 21 28 31 26 25 23 19 19 16 16 18 17 13 14 19 17 17 19 21 21 18 14 17 20 23 24 26 29 33 37 41 43 43 38 36 40 38 39 40 40 38

GFSSGP_500_spd_090.txt.gz
Wind_Speed
29 29 27 28 31 32 32 30 27 27 28 28 24 19 18 18 19 19 22 22 28 30 35 42 38 37 26 28 23 30 29 32 27 23 22 18 15 14 11 8 7 7 11 13 14 13 14 14 14
26 24 25 26 30 31 27 24 23 23 25 27 25 20 20 21 24 25 25 28 30 32 35 34 30 34 28 28 28 31 34 28 31 28 25 20 19 14 10 7 8 12 14 15 16 15 14 14 16
22 21 23 26 29 30 24 21 22 22 22 24 23 25 23 23 24 26 30 33 37 36 34 33 28 30 31 33 30 32 34 39 33 30 26 22 19 15 11 8 9 12 11 13 14 11 12 14 17
19 20 23 26 29 28 21 18 19 21 21 20 21 22 22 23 26 28 31 31 38 41 36 32 34 42 38 37 35 34 36 38 39 34 28 23 18 15 12 13 10 10 12 15 16 16 17 16 18
17 19 22 25 29 26 21 20 17 16 16 18 20 21 21 22 27 28 28 25 26 39 34 37 35 32 36 40 36 33 24 35 39 32 30 22 19 16 16 13 12 13 13 16 16 19 21 21 22
18 19 21 24 28 25 22 21 19 17 20 19 20 18 16 21 24 29 30 23 21 30 30 32 39 26 27 31 31 32 29 31 37 33 29 25 20 20 17 14 14 18 13 16 17 19 21 21 23
20 19 22 24 25 23 23 24 22 22 22 16 19 17 15 20 23 31 22 10 15 25 31 30 29 32 31 31 32 29 34 34 37 39 34 25 25 20 19 16 15 12 15 17 19 19 20 22 25
20 21 24 23 24 22 22 24 25 21 18 18 18 16 17 16 19 28 27 11 4 15 30 33 33 34 34 39 39 31 34 38 35 38 27 30 21 21 16 18 18 16 16 16 20 22 24 25 27
21 22 26 26 24 21 21 21 26 20 17 13 19 17 17 16 14 17 20 16 13 17 17 27 30 38 38 38 34 35 33 38 34 39 34 30 26 19 19 17 17 19 18 18 22 24 25 27 28
20 20 26 28 29 22 18 20 25 17 13 12 17 18 14 16 11 10 15 13 15 4 9 18 19 23 25 25 41 31 33 31 33 46 37 34 22 20 18 20 17 16 18 20 25 25 32 32 30
18 17 23 28 32 30 18 16 18 12 13 15 16 18 13 13 10 9 10 10 6 5 10 17 11 16 31 39 38 39 35 26 32 48 39 29 24 21 21 22 20 21 21 21 26 24 24 28 28
19 18 21 23 30 34 25 13 16 15 19 17 13 16 16 14 13 11 10 9 9 8 10 13 10 7 17 36 40 39 41 29 33 41 33 33 26 22 24 24 23 18 24 26 28 25 24 26 25
16 20 23 22 26 29 23 14 13 14 15 16 14 17 19 15 17 11 10 8 10 9 8 8 7 6 4 27 47 52 38 40 45 36 33 32 26 23 22 24 25 28 25 22 27 26 26 27 25
15 18 23 24 24 26 21 15 9 12 11 14 13 18 17 17 19 16 11 9 9 10 8 6 13 20 8 10 38 44 47 41 35 39 34 29 27 23 23 26 26 29 33 31 28 28 28 28 25
15 16 24 25 23 25 28 16 9 10 11 14 15 16 18 16 20 17 16 12 11 11 11 4 7 17 14 20 36 41 38 40 37 27 28 30 30 27 22 24 27 25 21 30 31 28 30 25 23
18 17 22 26 23 27 29 17 12 9 10 9 10 15 16 18 18 16 9 11 13 13 12 8 4 7 15 16 29 40 41 34 28 32 27 30 28 28 31 27 27 27 28 30 30 30 26 24 22
19 18 21 25 24 27 28 19 18 12 8 8 11 16 16 16 16 18 9 9 12 14 12 11 6 8 8 14 21 20 16 20 24 31 24 24 30 29 27 22 26 26 29 28 28 26 26 25 23
20 21 17 22 24 28 28 20 19 12 14 11 12 17 17 12 15 17 15 5 9 14 14 11 8 9 11 13 19 19 21 22 26 30 26 24 23 31 32 28 25 29 28 28 29 25 26 23 19
31 23 15 18 24 29 30 20 23 15 16 12 14 16 18 10 11 15 20 7 4 11 14 11 11 15 15 20 22 23 25 19 24 24 25 27 27 31 34 32 28 28 29 28 25 21 23 23 23
34 27 14 18 21 32 30 23 21 21 16 11 13 10 11 8 8 10 16 14 2 8 12 12 8 14 13 16 21 27 30 33 28 27 27 24 27 31 32 31 28 28 24 24 24 25 24 24 22
34 27 19 22 27 31 32 23 17 22 17 11 10 11 10 9 7 8 9 13 7 4 9 12 15 16 18 14 18 21 26 30 34 30 29 29 29 29 26 24 22 20 19 22 24 24 24 23 22
35 21 25 27 32 32 30 22 16 20 16 11 11 13 12 9 7 5 5 6 8 7 3 5 6 7 8 10 14 20 23 24 31 35 32 31 27 24 23 20 20 19 20 23 24 26 24 26 22
30 28 31 33 35 31 27 28 10 18 16 17 13 11 13 12 7 3 2 2 1 3 4 4 7 7 7 6 7 7 9 14 17 19 17 13 13 16 18 20 20 21 22 25 25 26 28 26 25
32 33 35 37 34 30 24 31 13 19 17 17 11 12 10 11 10 6 4 2 0 2 2 2 1 5 8 9 10 11 13 15 16 17 18 17 16 18 21 23 23 24 25 25 26 29 30 28 29
38 37 39 37 34 30 25 33 19 18 21 17 17 14 13 11 10 6 5 5 4 3 4 4 4 4 4 6 7 9 11 12 13 12 11 12 15 18 20 21 22 25 28 26 29 29 27 30 33
39 40 43 39 32 32 32 34 17 20 23 17 17 16 18 13 13 12 8 5 5 6 6 6 6 5 7 7 8 8 9 10 11 11 13 16 15 15 15 17 18 20 26 30 32 31 30 32 34
42 44 39 37 36 38 36 34 25 23 25 17 16 17 19 17 16 15 12 9 5 7 10 11 8 8 9 6 6 8 9 10 11 10 11 13 15 16 18 19 19 22 27 30 33 33 34 39 38
47 42 41 45 44 40 40 35 29 21 27 20 19 18 20 23 24 17 14 11 8 9 13 13 13 13 14 12 14 15 15 15 16 14 16 17 18 19 21 21 23 28 32 34 38 41 45 46 39
47 48 49 49 46 44 43 40 26 20 28 23 16 21 25 25 28 23 14 16 19 18 19 18 17 17 18 21 22 23 22 20 17 16 19 20 22 22 23 26 30 32 37 44 45 49 48 48 46
47 48 46 49 48 45 40 41 27 19 24 26 23 19 20 22 23 23 21 17 18 20 17 22 22 20 21 25 24 24 24 22 18 20 22 22 22 24 26 28 34 41 48 51 55 42 52 40 47

GFSSGP_500_spd_096.txt.gz
Wind_Speed
33 30 29 26 23 18 20 21 22 20 20 21 21 22 23 22 16 14 17 24 25 26 26 25 22 24 30 34 32 33 28 22 26 18 23 25 39 41 37 31 25 22 18 14 14 12 8 10 8
27 27 27 25 19 19 24 22 23 21 20 21 21 22 22 19 18 20 23 28 29 31 32 31 29 28 30 30 22 27 26 30 22 26 25 30 32 26 25 26 21 21 19 17 13 12 9 7 7
24 25 25 23 19 19 22 23 24 21 20 20 19 20 21 22 21 25 27 29 28 30 34 38 35 35 34 35 36 31 30 21 16 26 20 30 30 29 29 23 18 18 18 14 12 9 8 6 10
23 23 24 22 22 19 21 25 26 22 19 19 20 20 20 23 24 25 24 28 31 32 35 40 44 41 38 36 34 27 34 29 19 20 21 32 30 25 21 21 19 20 17 14 11 11 9 8 11
23 23 25 22 19 20 21 24 23 20 19 19 22 21 24 23 27 27 27 30 29 31 31 33 39 47 47 36 36 30 28 37 30 20 24 34 33 30 26 24 21 18 16 14 13 12 13 14 16
22 23 23 24 22 21 22 25 24 19 21 21 20 20 24 24 27 26 28 30 29 28 24 27 29 44 45 41 39 39 26 31 29 27 32 35 36 30 26 24 24 21 19 16 15 15 16 15 15
22 23 22 24 24 22 24 25 25 25 23 23 21 19 22 25 27 28 28 30 31 24 18 18 21 36 46 47 49 36 34 27 30 30 27 29 35 29 27 25 22 21 18 18 15 16 13 13 15
22 21 23 22 23 22 24 24 26 25 22 24 21 17 20 24 25 26 28 30 32 28 20 14 9 36 36 39 29 34 36 29 28 26 25 28 37 34 30 27 26 23 20 17 17 18 18 15 13
22 20 23 20 21 22 24 24 25 26 25 21 16 17 18 21 23 24 25 28 30 30 23 13 7 7 31 23 42 38 42 28 29 31 27 30 32 36 34 30 29 24 21 20 19 19 19 16 14
23 20 26 23 20 20 24 22 25 24 23 24 17 17 21 23 21 21 24 26 33 30 21 17 8 10 23 24 17 40 36 29 27 29 28 24 36 39 36 32 30 26 22 20 20 20 17 18 16
25 22 26 28 23 20 20 20 25 22 20 22 23 21 22 24 19 20 21 25 29 33 23 16 10 11 20 21 25 27 37 31 24 28 29 25 36 41 35 33 29 26 20 22 21 18 19 19 20
27 24 24 27 28 21 18 19 21 22 19 19 23 23 20 20 17 20 22 25 29 28 27 20 14 15 18 23 25 29 39 26 32 29 28 30 37 39 36 33 30 28 25 24 22 21 22 21 20
29 27 25 25 30 25 17 19 21 21 18 19 21 18 18 17 17 18 23 23 25 24 24 18 21 14 21 21 28 35 34 36 40 30 30 30 38 39 39 38 32 31 32 25 24 24 23 21 19
33 29 26 27 29 27 19 18 22 23 16 18 20 14 18 15 18 18 21 22 23 22 21 19 21 22 15 23 32 34 28 38 34 40 34 29 36 41 44 40 36 35 32 25 23 24 25 20 22
34 29 28 28 29 28 20 18 23 20 18 16 16 10 12 15 23 20 23 24 25 25 19 19 19 21 18 13 27 40 43 43 40 41 35 37 35 38 40 42 37 36 31 29 25 28 26 28 26
35 33 26 28 31 30 19 17 24 21 18 15 13 13 12 16 25 25 25 25 27 24 19 17 21 22 23 27 22 38 50 47 46 44 44 35 34 37 40 41 37 36 31 28 30 29 27 27 31
35 32 26 28 31 34 22 15 24 24 17 17 13 13 16 19 23 24 25 25 27 24 17 17 21 21 20 23 22 32 39 53 50 44 50 42 39 41 44 46 41 36 30 30 31 29 27 27 27
31 32 29 28 39 34 26 18 21 24 17 18 16 14 14 20 22 21 21 23 24 21 14 14 17 18 20 13 14 28 40 48 43 47 40 41 41 41 42 44 39 33 34 30 30 30 29 27 27
41 36 34 30 39 33 29 23 20 20 22 20 21 16 15 19 19 18 17 19 20 15 10 12 14 13 13 5 13 24 36 39 45 37 35 41 42 42 44 39 35 34 34 31 27 27 27 30 30
40 39 38 31 37 37 31 28 22 19 20 22 22 17 15 16 15 14 15 15 16 11 9 9 11 12 11 11 17 24 30 37 36 39 43 42 44 41 36 33 33 36 34 31 31 32 32 30 29
42 40 35 34 38 37 36 32 25 19 21 20 23 16 13 15 13 11 12 14 13 10 6 8 9 8 12 6 13 23 27 25 40 31 35 41 38 36 38 34 26 30 34 35 37 35 33 32 28
43 39 36 38 40 41 42 37 24 13 19 22 25 18 12 12 13 11 9 11 9 9 6 7 10 9 10 13 17 17 19 23 30 20 25 34 28 27 30 34 30 31 33 34 33 33 32 31 25
38 36 38 40 44 44 43 39 18 15 19 23 23 15 12 12 14 12 8 9 10 7 8 6 3 4 7 14 15 18 21 25 24 29 26 28 29 30 31 31 32 31 31 30 30 30 24 24 25
37 37 39 41 41 47 39 39 22 15 20 22 24 18 12 13 14 10 8 8 11 10 5 2 5 2 1 5 12 15 21 23 25 35 33 22 29 34 36 34 37 32 29 24 20 20 20 22 23
46 39 38 42 44 45 43 38 26 17 19 21 23 19 14 14 14 13 9 6 7 8 8 5 5 4 2 2 6 8 9 14 18 20 21 23 26 29 25 20 19 17 17 20 20 21 22 25 30
32 36 35 39 36 36 44 44 30 22 21 17 22 23 17 15 17 18 15 9 9 8 8 7 7 8 6 6 5 7 8 9 9 9 8 9 10 11 13 13 15 17 17 20 22 22 25 28 30
36 38 32 41 41 43 42 44 37 22 22 19 18 24 20 18 20 19 20 14 13 11 10 8 7 9 8 9 9 9 8 9 11 11 12 13 14 15 14 15 17 19 20 19 22 24 25 28 28
39 39 39 41 44 47 45 42 38 27 21 22 18 23 25 20 22 21 20 19 14 13 16 15 8 8 10 11 11 10 9 11 11 13 15 16 17 17 18 18 19 20 21 23 25 26 27 29 30
29 40 40 41 43 41 40 29 38 33 20 24 17 22 25 23 22 24 23 22 20 19 17 16 20 18 14 15 16 15 15 13 12 14 17 20 20 21 19 19 19 20 21 25 26 27 30 34 35
29 30 37 44 45 42 42 40 39 30 16 19 17 21 25 23 25 27 22 22 21 19 19 21 22 22 21 22 21 20 18 18 18 20 19 24 23 22 22 23 22 21 23 25 30 32 32 34 39

GFSSGP_500_spd_099.txt.gz
Wind_Speed
31 30 28 27 24 18 11 20 16 24 24 22 22 21 20 18 18 19 19 22 25 26 26 26 26 24 18 21 28 27 27 29 31 31 30 28 26 33 35 33 35 34 31 26 20 19 16 13 12
28 28 27 24 18 8 11 27 27 26 24 23 24 24 22 20 20 21 23 24 26 28 30 27 28 30 26 24 25 30 33 37 28 23 32 29 25 28 37 37 36 34 32 27 23 18 17 14 15
27 26 26 26 22 10 12 28 25 28 29 26 25 25 25 23 22 25 25 27 27 29 29 31 27 32 34 32 29 28 29 27 26 27 16 21 32 37 41 42 37 35 31 25 21 18 15 16 17
25 26 25 23 22 17 17 25 26 27 30 27 29 24 28 24 27 27 29 28 29 30 32 33 35 38 38 39 37 34 33 28 25 27 19 21 24 30 41 43 33 35 26 23 21 20 17 16 16
25 25 25 31 25 22 21 22 24 25 29 30 30 27 26 31 28 29 32 30 30 32 31 34 35 35 40 47 40 40 31 32 31 27 23 23 25 25 30 32 30 28 26 24 18 19 19 17 15
24 25 25 23 16 28 22 24 25 25 27 28 27 28 27 30 30 31 32 33 32 32 31 33 35 33 38 45 52 38 37 32 33 32 24 21 23 38 34 30 24 22 20 22 22 18 15 17 15
25 27 24 24 23 25 31 27 26 25 26 29 27 24 25 32 22 31 34 32 32 30 32 31 33 36 39 45 64 48 37 36 33 31 26 24 21 32 34 29 25 24 25 22 16 15 16 17 17
27 28 26 23 23 26 32 27 28 26 23 27 23 22 22 27 27 31 32 31 27 26 30 31 32 34 38 41 60 49 48 40 36 31 31 31 29 28 38 33 30 27 23 18 15 16 17 17 19
32 27 26 23 22 26 30 31 30 27 25 23 20 19 22 25 27 31 36 30 27 26 28 31 31 30 29 34 48 33 46 38 35 32 34 31 31 32 39 37 30 27 22 18 17 15 16 19 19
34 31 25 26 26 27 28 34 29 29 26 22 23 21 22 22 27 30 34 33 28 23 27 29 23 25 13 26 40 36 51 46 42 34 32 34 29 30 35 34 29 28 21 20 17 17 18 19 21
35 33 29 28 32 31 28 31 29 29 23 21 20 20 22 25 24 27 30 32 32 29 24 25 19 22 6 17 28 36 37 42 38 33 30 32 29 24 37 34 32 29 25 23 19 19 22 21 22
43 32 32 31 34 33 32 27 26 28 25 21 21 20 21 19 21 25 29 30 31 31 23 24 15 22 11 16 33 25 34 30 31 23 30 28 25 26 38 40 35 29 28 25 23 23 20 21 19
45 33 34 34 34 35 36 29 27 24 27 22 21 20 20 18 20 20 25 29 30 29 23 19 17 19 13 18 26 26 38 32 33 26 25 28 28 27 35 41 37 33 31 28 27 22 22 21 20
41 40 36 35 35 35 36 34 33 25 23 23 21 19 17 18 16 20 23 28 31 30 25 17 16 16 9 18 22 26 28 38 39 29 34 26 28 28 34 42 38 34 33 32 26 25 24 21 23
44 44 38 35 34 36 37 34 31 28 26 22 20 19 16 14 16 21 26 28 29 31 27 20 14 15 18 11 26 29 32 36 34 38 31 29 32 31 33 44 37 34 35 34 30 28 27 23 24
42 43 40 31 35 35 37 31 29 31 27 21 21 18 17 15 16 20 27 28 27 30 26 24 14 18 17 21 25 26 37 35 35 45 46 37 30 34 36 41 41 39 37 37 33 30 28 28 26
44 43 38 32 36 36 39 33 27 33 27 22 23 16 19 16 16 17 25 25 25 28 27 22 16 17 18 22 27 20 40 44 44 39 45 45 39 37 37 41 44 46 39 42 34 28 30 30 29
44 40 36 35 32 38 37 36 28 31 28 25 22 19 18 18 14 15 22 22 21 27 25 16 13 14 15 21 27 22 34 41 50 45 43 39 43 43 41 42 41 43 43 41 33 32 30 28 30
46 40 31 34 32 40 43 37 33 30 26 28 24 24 18 17 14 14 17 19 18 24 23 15 14 15 14 19 27 28 33 38 49 52 44 45 46 44 44 38 39 47 42 42 36 34 32 32 33
43 42 44 43 40 43 41 43 30 33 25 24 27 27 19 17 12 12 13 16 15 20 18 14 11 15 13 16 21 26 25 33 38 46 49 44 43 45 49 47 47 45 41 43 31 32 33 31 30
42 43 44 46 42 42 46 43 34 31 30 23 28 27 19 16 12 11 12 14 13 14 16 12 12 13 13 13 19 11 24 34 35 38 40 42 43 45 44 42 41 39 37 35 36 33 32 33 34
39 38 42 44 43 47 40 43 38 28 30 24 27 27 18 15 14 11 11 14 12 12 12 13 10 14 14 13 10 4 11 15 27 35 41 44 41 37 36 36 37 41 36 29 28 30 34 36 34
37 31 40 44 42 45 44 45 38 28 25 25 26 27 17 15 15 11 10 12 12 12 10 11 10 9 13 13 9 14 9 7 20 23 28 33 32 36 32 37 40 32 32 27 27 28 31 31 28
45 34 32 39 41 47 43 44 38 26 24 23 27 28 17 16 16 13 10 10 12 10 8 8 8 6 7 5 12 13 12 13 10 17 20 24 25 26 29 29 26 33 30 26 28 26 21 18 18
41 40 35 34 38 45 36 38 43 29 26 24 26 28 19 17 18 16 14 12 12 12 8 9 10 9 5 5 4 8 11 15 15 14 15 21 24 20 25 26 28 29 29 23 19 16 16 18 20
26 41 40 29 23 27 23 35 33 30 29 26 27 25 22 17 17 18 18 15 14 13 11 10 11 11 8 5 6 1 2 5 11 13 12 16 18 19 16 15 17 13 12 15 18 20 19 21 20
31 34 36 43 38 34 25 24 23 33 26 28 22 22 20 19 19 19 18 17 16 14 12 11 12 11 10 9 7 7 4 3 5 8 9 9 10 10 10 10 12 14 16 18 20 19 20 22 21
32 26 27 30 44 38 31 22 18 12 26 27 21 23 23 21 18 21 20 19 18 16 12 14 14 10 10 12 10 7 7 6 6 7 8 10 11 12 14 15 17 18 18 20 21 22 22 24 23
25 33 33 28 28 29 25 27 21 22 28 27 23 23 23 22 21 23 22 21 19 19 16 16 15 15 14 17 13 11 11 10 9 9 10 10 11 14 17 19 21 22 23 23 23 23 25 26 27
28 24 25 33 29 29 29 28 15 25 27 26 33 25 24 22 23 24 24 22 21 21 22 17 16 17 21 18 18 17 15 16 18 18 17 14 13 19 21 21 22 21 22 24 23 25 27 28 31

GFSSGP_500_spd_102.txt.gz
Wind_Speed
29 29 28 24 23 20 22 11 32 25 34 27 28 27 25 25 27 28 32 27 29 30 25 26 25 25 25 22 21 22 22 27 29 27 27 34 33 33 33 33 34 30 30 29 27 25 25 21 17
30 29 27 25 20 18 16 18 37 38 31 29 30 30 26 27 31 28 29 26 30 30 30 27 26 26 27 28 27 25 24 28 27 28 25 31 35 35 36 35 37 35 37 37 35 25 21 20 19
28 30 27 24 23 18 6 23 37 32 33 30 27 29 32 31 33 31 28 29 27 27 29 27 27 29 28 30 31 30 27 26 28 33 33 27 35 35 31 36 39 35 34 36 30 28 23 20 18
27 29 26 23 24 13 12 24 36 26 30 34 30 32 30 36 32 31 30 30 30 27 27 29 30 30 30 31 34 33 32 27 28 32 35 16 17 29 34 32 40 37 36 36 33 23 21 20 18
29 28 28 26 24 25 20 27 25 29 29 31 31 31 30 29 39 34 32 30 29 28 28 32 31 31 34 33 33 37 38 33 29 34 28 27 20 25 31 35 37 43 39 39 29 26 22 18 18
28 27 27 25 19 13 22 38 30 27 31 32 33 30 25 33 33 32 30 27 26 29 32 31 33 31 32 34 37 40 43 46 36 36 27 30 29 27 26 28 33 47 43 38 29 23 22 22 23
30 29 27 27 26 25 21 34 35 27 29 33 34 31 27 33 31 30 29 29 27 30 30 29 31 33 34 36 41 42 44 44 28 34 28 24 32 25 18 24 29 33 34 28 25 23 22 21 22
31 33 30 24 28 29 26 27 34 29 29 30 37 31 24 36 28 31 29 30 28 27 29 30 31 32 35 37 41 46 43 40 56 40 32 31 34 27 22 29 31 31 28 23 17 16 20 20 18
35 35 32 26 26 21 27 33 33 28 31 29 30 34 30 33 28 30 24 23 23 28 30 31 32 30 31 39 43 45 39 46 62 48 39 34 38 26 21 29 33 34 22 21 21 21 19 17 18
39 38 30 27 30 31 37 36 33 35 32 30 32 31 33 35 27 32 27 25 22 21 27 30 30 27 29 41 28 15 23 52 45 45 43 45 33 29 30 29 32 28 27 24 23 19 15 15 15
41 41 32 31 34 39 37 36 39 35 31 33 31 30 30 33 33 24 26 24 25 25 25 26 29 24 26 35 8 15 30 37 45 45 41 35 31 30 27 28 33 29 29 23 19 17 15 14 17
44 45 40 33 35 39 39 36 40 37 30 32 31 28 30 29 29 25 24 21 26 27 24 26 24 23 20 27 7 14 24 25 44 39 40 34 28 27 28 25 34 31 29 23 22 19 18 16 17
46 47 47 38 38 40 39 37 40 38 34 33 30 28 29 28 26 25 23 20 26 28 26 26 23 20 17 20 8 12 23 35 45 46 43 29 28 26 27 23 32 34 33 29 25 24 22 19 16
45 49 50 46 42 38 41 37 41 35 36 36 32 30 29 26 23 23 21 21 25 28 25 26 21 18 12 13 12 11 18 27 32 39 39 40 31 28 23 27 34 36 32 31 27 27 25 17 18
49 52 52 49 40 37 41 42 39 36 36 37 33 32 29 25 21 21 26 24 23 26 25 23 21 18 12 9 13 12 15 21 28 35 26 25 29 27 26 27 35 36 35 33 29 27 26 21 21
51 52 55 46 38 38 41 44 35 33 35 38 30 30 29 23 21 21 23 26 24 23 24 22 20 16 15 12 12 10 14 21 34 41 32 26 26 25 27 29 32 34 39 34 30 29 29 28 23
48 51 53 49 36 36 34 42 37 32 34 39 28 28 26 30 17 21 22 24 22 21 23 20 17 14 17 16 16 15 15 25 34 40 38 32 30 36 32 31 29 34 37 34 28 31 35 29 27
45 49 53 52 39 33 27 40 42 35 33 37 34 27 23 25 24 15 22 20 20 18 24 17 14 9 15 14 15 15 22 21 32 45 40 41 38 40 33 32 29 32 37 40 37 31 37 33 29
43 47 51 46 36 27 29 38 42 37 34 33 30 30 28 27 26 14 19 17 19 17 22 17 11 9 12 14 15 17 22 25 28 39 40 45 43 39 38 30 28 31 33 43 38 41 40 38 30
44 47 44 45 41 35 24 28 45 46 37 34 27 30 27 25 28 15 18 15 16 16 19 19 13 10 10 13 17 21 22 28 30 44 46 43 39 44 43 43 38 38 36 38 32 41 41 39 34
42 38 44 43 48 46 37 45 44 42 37 34 29 28 29 24 28 15 18 15 15 13 16 17 15 11 11 14 15 22 26 29 26 43 45 46 40 39 40 40 42 41 35 38 36 39 42 42 33
40 33 33 45 41 50 40 48 45 42 33 32 33 25 30 24 23 18 19 15 13 11 13 15 14 12 11 15 17 15 23 14 23 37 40 44 47 41 43 43 41 42 41 44 45 40 32 33 31
42 37 33 40 41 46 46 49 42 36 35 32 28 20 26 24 19 21 17 16 15 11 10 13 11 12 11 12 16 14 9 19 16 28 28 39 45 46 40 38 39 39 37 33 29 28 28 25 31
37 37 32 37 42 49 44 46 46 42 34 26 20 21 26 23 18 20 18 17 15 12 8 10 11 12 12 11 12 14 10 16 12 14 28 37 39 37 44 42 35 29 32 31 27 23 23 25 24
36 39 36 36 43 46 36 41 43 37 31 26 18 26 27 22 19 21 21 18 17 14 10 8 11 10 10 10 11 10 9 7 9 10 5 18 22 29 29 25 26 30 21 24 23 23 24 20 14
33 40 38 35 41 30 28 32 32 22 24 29 29 20 26 21 20 20 22 17 19 16 13 9 5 11 9 9 10 9 8 4 4 8 8 5 15 20 17 20 21 22 22 26 21 13 15 17 17
29 38 30 28 30 31 25 27 19 19 23 29 30 30 21 24 19 21 21 18 19 17 15 13 10 11 10 6 7 8 6 6 4 3 9 5 9 15 18 15 11 11 14 12 12 15 17 20 21
26 30 28 26 32 38 27 26 20 24 26 24 24 23 22 24 23 21 21 19 18 17 16 17 12 9 11 12 8 6 6 2 2 3 5 7 7 8 11 11 12 13 12 15 17 19 19 20 22
22 26 33 27 25 34 29 35 23 17 15 19 24 25 19 24 27 22 22 21 18 18 18 18 17 12 9 13 13 9 7 6 4 5 7 8 6 6 6 8 9 11 13 15 16 17 18 21 23
26 24 29 27 31 30 26 35 17 20 28 28 30 20 22 25 26 23 23 20 19 18 19 18 20 16 14 13 15 15 13 11 12 13 11 10 8 8 11 13 13 15 17 19 19 19 21 23 24

GFSSGP_500_spd_105.txt.gz
Wind_Speed
24 24 23 23 20 12 17 17 8 19 29 27 29 29 28 29 30 31 30 27 31 32 27 26 28 29 29 27 25 23 23 17 22 27 32 29 34 34 34 32 32 33 33 31 29 30 31 29 26
24 24 23 23 21 14 19 11 21 28 31 30 33 30 29 29 33 32 24 25 27 29 26 27 26 27 27 27 27 24 23 22 25 24 27 27 30 35 32 32 31 31 33 29 30 31 31 30 27
24 25 24 20 20 14 16 16 20 27 24 32 32 29 31 34 36 31 25 27 26 25 25 27 26 23 25 26 26 26 28 28 27 24 25 26 30 34 38 33 31 33 33 32 30 30 35 30 28
24 25 25 23 18 22 21 18 26 27 23 37 35 34 30 33 36 38 27 27 26 25 25 27 25 27 29 27 28 30 28 30 22 28 22 32 37 41 34 38 32 34 34 34 35 36 34 35 23
24 26 26 22 19 19 23 17 30 35 28 29 33 34 33 36 38 36 31 26 24 23 21 23 27 27 28 28 29 28 29 32 28 37 19 32 25 30 39 33 33 35 34 34 36 37 36 34 26
24 25 27 26 22 24 18 21 31 39 30 24 30 32 33 32 34 32 30 25 25 25 22 23 24 26 28 29 28 29 28 32 36 29 31 33 23 23 22 28 27 31 38 36 38 36 39 19 19
23 25 26 26 20 20 15 24 34 38 31 28 32 31 33 34 34 34 32 26 23 24 23 22 24 27 27 29 29 30 31 34 40 43 42 42 30 23 22 28 26 29 36 41 39 37 25 23 21
25 22 23 26 24 20 21 19 34 34 35 27 33 33 30 36 36 32 31 30 23 20 20 21 24 30 32 31 31 30 30 35 38 37 42 35 35 29 26 28 20 22 28 37 43 38 30 23 17
28 26 27 24 27 23 30 22 35 39 34 32 29 34 36 35 32 26 23 25 22 19 21 23 25 29 31 30 30 30 35 40 41 40 37 40 37 34 24 27 22 23 20 26 36 27 19 14 17
30 29 29 31 31 30 35 34 35 39 38 36 37 36 35 34 33 31 27 28 19 14 18 20 27 26 29 29 27 33 40 39 41 43 43 56 39 37 29 29 23 27 25 28 20 15 16 17 15
30 29 33 33 35 34 35 39 39 34 37 32 35 38 39 37 35 33 27 30 25 19 20 24 24 27 26 28 27 36 31 25 40 53 48 48 40 39 32 19 26 29 32 26 19 17 19 18 17
32 32 34 35 38 40 39 40 42 38 36 34 30 34 35 41 36 35 30 28 27 26 25 26 26 24 25 25 27 22 16 18 45 50 52 46 45 37 30 23 23 24 28 24 22 23 19 17 16
34 34 36 37 41 44 44 44 43 40 37 36 33 31 33 38 38 37 31 29 26 28 28 28 25 22 23 23 21 14 9 18 22 52 54 46 37 42 32 26 24 26 30 28 27 25 20 20 19
36 38 41 42 44 48 50 44 45 39 35 37 35 31 34 35 36 35 28 28 25 30 30 28 26 23 21 19 16 14 6 15 21 38 53 38 39 40 35 29 24 30 34 33 31 29 22 20 21
40 41 41 41 44 49 44 46 41 34 35 38 37 36 34 34 35 30 26 27 22 26 28 26 26 22 19 14 9 15 6 28 30 50 47 41 41 32 30 25 25 30 36 35 32 31 27 23 22
43 45 37 35 42 45 41 47 37 34 35 34 37 37 29 31 35 26 25 23 21 23 24 24 25 21 16 13 9 5 8 13 21 35 33 37 34 32 25 25 26 35 34 37 35 31 30 24 22
40 35 40 35 43 47 41 48 42 42 29 33 34 38 26 29 34 27 18 23 22 22 21 23 24 19 14 11 12 8 2 5 9 25 32 33 31 30 30 28 27 34 36 38 36 32 31 26 24
34 40 39 42 43 50 44 44 47 36 38 28 34 37 29 29 31 28 15 21 22 20 19 21 23 15 11 9 11 11 9 7 6 14 31 30 25 29 31 27 26 31 32 35 37 36 33 28 25
38 41 44 43 45 48 41 45 40 40 33 23 27 37 33 29 30 24 13 18 21 18 18 19 21 15 11 9 10 11 13 16 11 12 22 32 34 31 35 35 30 33 29 33 32 32 33 32 30
40 43 44 44 47 46 43 40 39 43 38 30 31 37 30 25 31 26 11 18 19 18 16 15 17 18 11 8 10 13 14 15 15 19 24 32 41 37 37 35 37 30 27 22 28 30 35 32 31
40 46 46 46 47 46 39 42 37 43 44 41 33 35 30 26 32 28 14 19 19 18 14 13 15 16 14 9 12 14 12 12 18 30 34 33 42 38 37 42 41 31 26 24 27 28 29 32 34
44 45 46 46 45 46 36 43 40 44 41 49 24 24 28 29 34 26 16 20 18 18 13 12 13 12 13 12 12 13 13 13 16 23 27 36 38 41 39 42 42 37 30 32 30 30 32 36 36
44 46 49 49 43 39 36 39 32 47 42 33 31 31 28 29 33 25 16 20 19 18 13 10 12 12 12 12 11 12 10 13 19 12 18 34 35 45 42 40 36 37 32 36 34 33 37 40 32
45 46 41 42 39 43 33 34 39 47 45 41 31 22 22 24 29 22 15 21 19 18 12 8 13 13 11 12 11 11 10 6 14 20 12 44 40 35 45 39 35 33 32 33 38 38 31 29 28
44 42 39 45 42 39 30 33 37 37 43 34 23 19 24 26 27 19 14 18 18 19 14 9 12 10 8 10 9 8 7 5 3 11 6 18 32 34 38 40 34 31 33 34 33 30 28 27 24
42 37 40 40 35 35 35 30 25 15 26 23 22 26 24 24 21 19 16 20 21 20 17 11 10 11 9 9 9 6 6 3 6 4 6 5 21 33 32 30 33 30 28 30 29 24 25 26 20
31 32 26 37 36 38 37 26 14 24 25 23 27 26 26 31 25 19 19 21 22 22 20 14 13 13 10 6 8 6 4 4 5 4 5 5 3 22 26 24 26 25 23 24 24 29 24 17 17
33 24 29 31 34 33 33 18 19 25 25 36 34 35 24 33 32 24 23 23 23 24 21 15 12 13 11 8 7 8 5 2 5 7 7 11 12 11 10 11 15 17 18 17 20 19 14 13 18
23 29 25 30 33 29 25 26 28 26 34 40 38 43 36 33 32 27 24 25 25 26 21 16 13 13 12 11 8 9 7 3 2 5 7 7 7 8 8 11 14 16 18 17 17 17 19 19 19
33 23 28 26 31 27 29 23 30 22 13 20 28 39 33 31 24 27 27 25 25 24 22 18 15 14 14 13 12 12 10 9 6 6 6 6 7 10 13 13 14 14 16 18 19 20 21 20 21

GFSSGP_500_spd_108.txt.gz
Wind_Speed
17 19 19 15 13 14 18 24 25 30 12 13 18 24 27 27 26 28 26 26 26 30 25 27 28 26 27 29 25 25 24 24 24 23 18 20 25 32 37 35 34 34 32 30 26 25 25 26 27
14 17 19 15 13 13 16 22 26 29 23 15 18 20 25 28 29 30 25 25 25 27 27 29 28 26 25 25 25 25 26 23 25 19 21 26 23 26 33 35 33 32 32 34 32 29 26 26 28
12 13 16 16 14 14 18 23 27 25 18 21 26 27 26 28 27 28 27 25 21 22 26 29 27 27 27 25 25 25 25 26 29 21 25 30 25 24 28 33 32 34 32 32 33 30 25 27 27
14 14 12 12 15 15 16 22 28 28 21 25 29 30 28 28 27 31 29 28 26 26 25 25 23 24 24 26 25 26 26 24 20 33 33 31 28 26 31 31 34 33 32 30 28 29 31 29 29
12 12 11 13 12 16 17 22 26 27 26 28 28 32 34 35 35 31 29 30 26 26 24 23 24 24 24 21 22 24 25 25 26 28 32 37 30 23 31 29 28 33 30 29 28 30 29 30 32
14 12 12 15 13 14 15 24 26 24 26 29 25 30 32 34 33 34 31 31 26 26 25 24 24 21 20 20 23 24 28 29 28 29 26 14 24 22 28 29 31 32 32 27 30 34 34 36 35
17 13 12 13 14 13 20 25 26 26 28 31 20 25 29 33 34 38 33 31 34 28 23 22 19 17 20 21 25 28 30 33 32 30 28 20 30 31 32 25 26 32 31 31 34 37 38 38 35
21 19 16 14 18 18 25 29 30 31 36 33 28 26 28 33 31 36 30 28 32 30 25 23 21 19 21 23 26 31 32 34 34 27 27 30 36 28 29 21 21 31 28 28 34 38 39 36 29
24 20 17 17 23 21 28 30 33 38 41 39 33 26 30 35 32 32 30 27 31 29 26 27 23 22 26 27 30 31 31 33 35 37 31 30 30 35 26 27 20 31 26 28 37 42 35 29 22
27 24 18 23 26 25 29 29 33 37 42 42 34 33 33 36 37 29 32 30 32 30 25 27 27 27 28 31 31 31 30 28 35 38 35 31 36 38 37 36 22 26 23 21 23 32 30 33 21
29 25 19 21 24 26 29 32 34 36 42 41 40 35 36 37 38 31 30 31 33 30 24 25 27 29 30 32 33 32 26 32 30 28 34 37 26 40 41 34 25 23 18 16 11 12 20 16 16
30 24 22 22 26 29 29 31 36 39 41 43 35 39 39 38 38 35 29 29 32 30 26 27 28 29 32 31 33 29 26 28 27 26 38 40 40 47 33 27 30 27 23 19 20 21 21 16 16
28 25 25 24 28 29 30 32 37 39 42 42 38 39 39 39 38 34 30 27 31 32 29 27 30 30 32 31 30 26 27 26 25 31 38 46 45 49 41 35 24 24 25 28 27 23 20 19 16
29 28 28 27 29 32 32 32 38 37 38 35 43 40 37 39 35 35 31 27 29 31 31 27 29 29 31 30 28 21 25 20 21 15 42 50 52 50 38 37 29 26 26 31 28 25 26 24 20
32 31 27 29 31 34 36 31 35 38 41 42 47 42 37 36 34 33 33 25 26 31 32 27 27 29 31 28 25 18 18 18 19 23 42 56 47 43 40 36 30 27 29 28 28 29 30 28 19
34 31 31 29 34 36 41 34 36 38 38 39 43 41 42 38 31 33 28 18 25 32 28 25 25 28 27 24 19 14 11 13 11 23 44 54 50 43 43 36 30 30 29 32 33 33 32 31 20
32 33 36 32 36 39 41 39 38 38 39 40 42 43 41 36 31 32 23 18 25 30 24 21 23 25 24 20 13 12 9 11 9 23 41 48 45 37 39 37 31 33 33 32 34 35 34 34 24
33 38 37 36 34 39 37 43 41 40 38 42 38 45 46 39 29 28 23 19 23 27 22 19 22 21 21 17 13 12 9 2 5 29 40 33 37 40 34 30 32 35 34 34 33 34 35 35 29
38 37 38 37 34 41 42 44 40 42 39 41 40 44 44 45 26 31 26 13 20 24 19 18 20 19 18 17 14 12 13 10 7 6 17 33 37 37 34 33 33 29 29 34 36 36 36 37 32
36 38 37 37 37 43 44 45 42 42 35 41 40 42 41 41 34 28 26 11 19 21 19 18 18 18 15 15 14 12 11 11 12 13 13 20 30 37 33 31 32 28 29 27 32 37 37 36 39
36 38 35 40 40 41 45 45 42 37 35 40 38 38 37 40 27 24 25 15 16 19 19 17 18 16 14 13 13 14 12 13 13 15 17 16 21 25 34 34 37 34 28 25 30 27 30 31 33
38 34 39 40 41 44 42 52 41 35 34 37 35 37 37 36 31 28 27 17 17 21 19 18 17 15 13 13 11 11 14 17 19 16 20 22 28 34 35 38 34 33 32 28 27 25 23 24 28
40 36 37 39 42 44 44 53 35 35 29 32 37 41 35 35 29 29 25 21 19 23 18 17 17 15 13 14 14 10 11 16 20 19 20 21 30 35 39 40 39 37 36 37 31 31 31 31 27
36 39 41 42 44 48 41 45 39 29 28 26 42 39 35 34 33 27 22 21 22 23 19 17 16 15 13 15 13 10 10 13 15 14 17 26 38 28 36 34 41 37 40 38 34 32 31 31 31
39 41 43 45 46 48 41 42 37 28 27 29 42 40 38 33 33 27 22 16 22 22 20 17 16 15 10 11 12 10 9 11 13 9 7 21 37 41 40 37 37 35 36 36 34 29 41 33 35
41 42 44 45 46 43 41 47 30 26 29 29 34 35 28 34 28 25 21 18 20 23 21 16 17 16 13 14 13 8 8 7 10 8 5 10 37 38 40 36 35 36 34 36 32 32 31 28 29
40 40 40 37 36 39 41 35 29 27 30 30 29 41 38 34 23 24 24 20 23 26 19 19 19 18 16 14 15 7 4 6 4 11 7 4 22 34 39 33 36 36 37 35 36 33 29 29 28
39 38 40 39 39 41 35 24 28 25 28 26 29 40 42 39 36 33 25 22 26 23 23 21 21 20 17 14 15 9 3 3 3 3 6 12 14 26 29 31 31 29 34 33 32 30 30 30 30
32 34 43 44 39 37 33 29 24 22 29 38 28 45 41 36 33 34 31 27 26 24 24 23 22 21 19 16 14 12 6 4 5 6 8 8 15 19 20 24 24 25 22 21 21 24 29 31 27
37 41 38 37 35 36 34 28 23 28 38 35 23 44 40 35 39 39 33 28 28 27 25 24 24 23 21 18 14 13 10 9 9 9 8 10 7 8 13 17 17 18 18 18 17 16 17 18 21

GFSSGP_500_spd_111.txt.gz
Wind_Speed
11 12 12 11 12 14 16 18 20 20 20 20 18 15 17 17 20 22 24 24 27 29 27 28 29 28 29 29 29 27 26 25 24 22 24 24 24 22 16 17 30 33 31 30 26 25 22 22 21
10 10 11 12 11 12 12 14 16 16 19 23 19 21 21 21 20 22 22 27 29 27 26 26 28 30 29 29 28 28 26 25 24 24 21 23 22 25 23 25 24 33 32 30 29 27 23 21 20
12 10 10 12 12 10 10 10 14 17 17 19 20 23 27 21 22 25 26 25 27 24 24 26 27 28 28 28 28 28 26 27 28 27 26 25 24 25 26 29 25 27 30 30 30 29 25 21 19
12 12 11 12 14 10 10 12 12 16 17 20 19 20 24 26 26 25 24 28 29 28 26 27 27 26 26 27 27 28 26 26 25 25 22 28 30 29 25 29 25 25 30 31 29 26 25 19 20
16 15 15 13 14 13 12 16 15 15 21 23 22 18 19 24 29 29 26 25 30 29 28 27 27 26 27 25 27 25 24 24 24 27 29 28 25 19 24 26 26 21 22 29 25 24 22 22 25
20 20 17 15 13 15 14 18 17 18 22 26 24 23 24 25 29 28 26 29 31 31 31 28 27 24 24 22 24 26 27 25 25 28 37 34 28 42 21 23 21 18 17 24 24 22 22 25 27
23 24 20 17 13 13 19 19 17 18 23 26 25 25 30 34 32 28 22 26 31 29 30 29 28 24 22 23 24 27 28 29 29 27 29 32 40 30 32 19 17 22 19 23 23 23 27 27 30
28 30 24 17 17 14 23 23 19 17 21 25 27 27 28 29 37 32 24 22 30 29 29 30 30 26 22 23 27 30 31 33 29 30 29 30 23 22 22 22 25 21 21 25 28 28 30 31 34
36 32 28 19 23 22 25 24 23 25 22 24 27 29 29 31 34 35 30 24 26 28 30 31 30 27 22 24 29 32 34 35 33 28 28 30 28 27 33 30 25 22 23 25 28 29 32 36 40
38 35 30 25 28 26 28 22 24 28 28 27 30 30 31 33 34 38 34 26 23 25 27 32 29 29 28 28 32 36 36 36 35 30 29 30 31 31 27 32 26 19 22 26 27 30 33 34 39
37 36 32 30 27 24 25 24 29 27 26 31 34 32 37 38 36 37 37 28 27 25 24 31 29 29 31 33 34 37 39 38 36 30 32 30 27 29 29 35 39 30 22 27 25 31 34 36 36
39 37 34 30 28 26 24 29 28 26 25 30 34 36 37 39 41 42 39 30 27 25 24 28 28 27 30 33 35 39 39 34 33 32 25 29 29 30 30 35 31 31 21 22 19 20 24 24 18
37 35 32 31 30 27 27 28 25 26 28 29 33 38 40 39 44 44 42 30 27 26 24 26 26 26 29 31 36 39 34 31 25 29 24 31 35 36 37 39 36 26 28 22 19 21 23 23 23
36 37 34 33 31 29 32 27 30 26 28 31 32 40 43 44 44 46 42 33 33 28 27 24 24 26 28 31 38 37 31 28 25 24 21 26 33 44 36 38 44 39 36 29 23 25 25 26 27
40 38 37 34 31 31 36 30 29 29 30 29 32 37 39 44 43 44 37 35 33 32 29 22 24 25 27 31 35 34 26 21 24 23 21 22 36 42 41 35 34 35 34 30 28 30 29 29 26
40 40 35 33 34 34 39 28 27 29 31 29 32 35 38 39 40 38 39 35 32 31 29 22 24 24 25 31 34 30 20 18 26 22 30 36 40 46 45 47 37 32 33 29 29 28 27 29 26
43 37 34 38 37 38 37 31 29 31 30 29 32 36 41 41 38 39 36 31 31 30 28 21 21 21 24 28 32 26 18 19 27 18 23 33 49 45 46 51 41 38 34 29 29 30 32 31 30
34 39 43 39 37 35 37 34 31 31 31 32 37 38 39 40 36 39 38 32 27 26 27 20 20 18 22 25 29 24 17 18 21 10 14 46 48 46 52 48 41 39 35 32 27 32 33 34 34
43 42 41 38 34 40 34 37 32 33 37 37 39 39 35 36 39 42 39 38 33 26 24 19 19 17 18 23 25 21 16 15 14 11 14 45 42 49 53 46 41 36 33 28 30 34 35 36 35
42 43 38 35 33 41 38 37 32 36 37 40 39 38 34 33 40 44 43 38 26 24 22 18 19 17 15 20 21 19 14 14 11 10 11 31 42 48 41 40 40 36 33 33 33 35 38 33 33
43 39 37 36 38 41 40 40 34 35 37 38 36 41 33 34 41 45 45 35 22 22 19 19 20 17 14 16 19 16 15 13 14 11 12 16 38 43 45 39 32 32 29 27 29 31 31 33 32
40 39 38 39 42 42 40 43 33 37 34 37 36 43 34 37 41 45 40 33 23 22 22 20 21 17 13 15 19 18 13 14 16 16 18 18 19 36 44 34 31 30 31 29 27 27 33 35 33
42 42 41 43 43 44 38 49 31 36 33 36 37 39 33 37 40 41 34 31 26 26 26 22 19 17 13 15 18 19 15 14 16 18 21 20 22 24 23 27 33 32 33 32 30 27 32 31 30
41 44 44 44 43 47 36 46 36 35 31 36 34 32 31 35 39 41 35 30 29 29 28 25 19 16 14 15 16 17 16 15 17 18 21 25 26 28 35 38 37 36 39 39 37 34 31 32 31
45 45 47 47 46 45 37 45 38 35 30 35 33 30 31 33 40 37 36 29 29 30 25 22 18 16 16 14 15 17 18 16 17 18 19 21 29 34 32 37 42 38 41 43 38 41 37 36 34
47 47 49 49 47 43 40 45 38 35 37 34 32 30 30 35 48 40 30 28 28 30 23 18 18 18 17 16 17 19 19 17 15 15 18 26 33 33 48 46 41 36 37 43 41 42 46 34 33
48 49 47 48 47 48 44 41 37 37 34 33 31 31 32 36 45 35 34 34 27 26 23 21 22 21 18 18 18 18 18 17 15 14 18 25 17 34 41 44 44 34 35 42 37 41 42 37 30
47 47 45 43 44 46 41 38 37 31 30 35 34 35 32 35 45 39 40 36 32 30 26 21 24 23 19 19 18 17 15 16 13 12 9 17 13 25 38 42 43 39 34 38 34 32 37 34 33
46 47 47 46 38 43 43 38 36 36 34 34 34 37 31 39 41 42 38 36 37 36 30 24 26 24 21 21 18 17 16 16 12 12 10 7 13 15 27 26 35 36 38 35 27 32 34 32 33
45 44 45 37 38 41 44 34 35 34 33 31 35 35 29 40 46 46 46 44 41 37 32 28 26 24 23 22 20 18 16 13 17 12 13 9 8 12 14 23 31 33 30 38 23 23 21 26 28

GFSSGP_500_spd_117.txt.gz
Wind_Speed
19 16 16 15 11 8 5 6 8 9 11 11 12 12 12 16 20 19 19 18 17 16 16 18 20 20 18 18 18 19 18 18 17 17 17 19 18 19 18 18 22 23 23 24 24 23 23 23 24
21 19 17 16 13 11 7 6 8 9 9 9 9 11 12 15 18 17 19 19 20 19 16 17 21 20 19 18 19 20 20 18 18 17 20 23 25 23 20 20 22 21 19 21 25 26 25 23 22
22 21 20 19 15 14 10 8 9 9 8 6 5 10 12 15 16 18 18 19 20 21 19 16 19 20 20 19 20 21 20 17 18 20 22 24 27 30 22 17 17 18 21 22 22 25 27 26 22
21 22 22 21 19 18 16 14 14 13 13 13 12 10 14 18 20 17 18 19 23 26 23 21 17 20 21 21 18 20 19 16 17 21 20 24 31 32 22 19 22 20 20 24 22 23 27 27 26
21 21 22 20 20 22 21 20 19 16 16 17 16 14 14 16 18 17 17 21 20 25 28 27 19 18 22 23 18 17 17 17 17 19 20 21 25 21 19 24 23 17 19 18 22 23 27 29 28
26 24 26 24 22 26 25 25 25 22 21 19 18 14 16 20 18 17 16 20 23 26 29 32 29 20 21 22 21 17 15 17 18 18 20 20 21 22 34 16 13 10 26 20 20 22 27 31 28
30 28 28 26 22 24 27 29 31 29 24 22 21 19 20 20 22 20 19 19 25 27 28 32 31 25 23 22 20 20 16 15 19 21 22 21 21 22 21 26 19 27 23 15 13 21 27 25 25
34 35 32 30 23 22 28 32 34 35 30 27 25 23 22 22 24 22 25 20 22 26 28 32 35 30 25 24 21 20 19 17 20 21 21 22 23 22 18 25 20 19 22 20 19 21 29 25 24
38 39 36 31 26 22 29 36 38 40 36 32 28 25 24 25 26 26 28 26 21 22 24 26 33 34 26 27 23 21 20 20 21 19 21 24 24 22 21 22 24 17 25 24 23 22 29 28 27
40 39 39 37 33 31 36 39 41 42 38 34 31 26 26 27 29 31 28 25 25 22 26 26 30 33 28 29 26 23 22 21 22 21 23 25 25 23 21 22 21 20 24 24 13 25 31 29 28
40 40 41 42 40 40 38 40 42 44 37 38 35 31 29 29 34 30 24 25 28 26 29 32 29 32 29 29 28 27 24 23 23 24 23 24 25 21 24 25 23 22 24 20 19 22 28 29 27
41 41 42 42 42 42 40 41 43 42 38 40 37 33 33 33 34 28 26 27 31 29 30 34 30 30 31 30 28 29 25 25 25 28 25 23 21 21 22 24 24 25 24 22 18 23 29 31 27
40 40 42 42 43 43 42 40 41 40 39 41 39 38 35 34 32 29 28 29 32 30 29 33 31 33 31 32 28 30 27 25 27 29 28 24 20 22 23 18 20 26 28 27 25 23 23 29 28
41 42 43 43 42 41 41 41 45 39 40 44 44 40 35 34 32 29 30 30 31 30 27 33 31 37 31 31 30 30 28 25 26 27 26 23 20 17 22 17 21 27 31 33 29 25 24 28 28
47 45 43 43 42 41 40 41 40 40 42 43 43 39 38 34 31 31 33 30 32 32 30 28 33 36 31 31 31 29 27 25 24 26 23 18 16 19 25 23 27 30 31 33 29 21 27 27 27
51 50 47 42 42 42 42 40 41 43 44 41 40 40 35 31 34 34 34 33 33 33 31 28 33 33 31 31 33 30 26 24 23 25 23 20 23 24 31 26 33 31 31 34 33 31 30 27 28
53 51 46 44 43 44 44 45 45 44 44 42 41 39 35 34 36 36 35 33 36 34 33 28 32 29 31 33 35 32 26 22 21 23 24 22 23 25 37 31 33 37 36 36 35 33 31 32 32
49 47 46 49 46 47 48 50 47 45 44 43 44 39 35 36 36 38 35 35 34 34 34 28 30 29 31 33 35 33 26 22 19 20 23 22 24 24 29 33 33 41 37 38 39 34 35 36 34
54 53 53 56 52 48 45 45 49 49 45 44 44 40 37 37 39 36 32 34 36 36 36 29 29 29 32 32 34 31 26 21 18 18 22 24 23 32 26 35 36 45 42 46 40 37 38 37 36
55 53 54 50 44 45 47 50 48 44 46 45 42 39 37 39 37 36 33 34 36 36 37 30 28 30 31 33 36 29 25 21 18 18 21 23 21 29 27 36 38 41 46 47 44 47 40 41 39
56 53 51 50 48 45 48 50 45 43 44 41 40 38 37 39 41 38 34 34 36 36 37 32 28 29 32 36 38 29 26 20 17 16 18 22 19 19 28 28 39 44 41 43 41 44 42 43 40
46 42 44 41 42 48 49 55 53 48 44 43 39 37 40 44 44 38 31 34 33 36 31 31 29 31 34 38 37 29 25 20 17 15 16 19 15 21 18 34 43 41 40 41 41 43 44 44 38
51 43 42 46 49 49 46 48 49 46 45 42 39 41 43 45 42 36 32 31 31 35 31 30 32 31 34 37 34 28 24 19 16 13 14 18 15 13 6 23 36 43 43 45 44 43 41 39 37
41 45 45 45 43 50 49 48 52 51 43 40 40 42 45 43 39 33 32 30 32 33 32 32 33 32 36 34 31 28 23 18 15 13 12 17 14 12 12 17 34 40 53 49 44 36 35 37 37
43 44 44 46 48 50 46 47 49 49 46 43 40 44 41 40 40 36 33 32 34 31 32 34 34 34 36 32 30 27 23 18 15 14 12 15 16 13 13 10 24 43 47 51 44 42 40 37 36
44 43 46 46 45 48 53 54 51 48 46 45 44 44 41 41 40 38 36 35 34 32 35 34 33 37 40 32 31 30 24 21 16 13 14 14 16 15 15 16 13 20 44 46 40 37 34 35 35
47 51 45 45 47 47 49 50 51 49 46 46 46 44 43 40 39 37 39 38 36 31 35 35 35 36 39 36 32 32 27 22 15 12 14 13 15 13 15 17 16 16 19 32 40 38 37 38 36
38 42 40 45 48 50 53 52 52 50 48 47 47 46 45 42 42 42 39 38 39 34 35 40 37 38 39 37 34 33 28 22 16 11 13 12 12 10 13 20 26 23 23 30 35 34 35 34 33
32 35 40 44 44 47 50 51 52 52 51 49 49 50 48 44 46 45 43 41 40 39 39 41 43 40 41 34 35 35 29 24 15 13 14 12 11 9 9 16 23 23 40 36 37 39 38 37 35
37 31 30 32 39 48 48 52 52 51 50 50 51 51 48 45 47 47 46 44 44 40 42 42 46 43 36 33 37 35 30 25 17 16 13 15 14 12 10 16 20 29 39 41 44 45 39 39 39

GFSSGP_500_spd_120.txt.gz
Wind_Speed
20 21 20 18 17 14 15 13 10 8 8 7 8 7 8 8 9 12 13 16 18 18 17 18 18 15 16 17 17 18 19 16 14 14 14 13 15 17 19 22 22 21 21 22 21 25 26 25 26
21 22 22 20 17 17 17 14 13 10 9 8 8 7 7 8 7 10 15 16 17 19 19 18 21 21 18 20 19 19 18 15 13 14 14 15 15 17 21 24 26 25 22 21 19 22 25 25 24
21 23 24 23 20 19 22 15 15 12 12 12 11 9 11 15 11 11 14 18 15 16 18 22 22 22 23 22 22 20 18 17 14 14 14 16 16 19 22 28 27 29 23 20 20 19 24 26 24
22 23 24 24 22 24 24 20 18 17 16 17 15 16 15 17 14 10 13 17 18 19 17 17 21 24 22 25 22 24 22 19 16 15 17 14 16 19 30 30 19 31 26 18 20 18 19 26 27
25 23 25 23 22 25 28 24 23 22 22 20 19 19 19 19 17 7 11 18 21 24 25 20 19 21 21 20 21 21 23 21 20 16 19 15 15 17 16 27 19 20 22 17 18 20 21 26 31
28 27 27 24 22 27 29 28 26 25 27 25 23 21 22 23 21 13 14 17 22 24 24 24 21 21 22 22 23 22 22 21 20 18 19 16 14 15 17 15 23 28 21 12 17 18 21 25 32
33 31 30 31 27 26 29 32 31 30 29 30 27 26 27 28 25 20 17 17 21 27 25 21 24 24 21 24 24 23 23 21 20 20 22 20 15 15 16 15 19 20 17 23 24 23 24 28 31
37 36 35 33 30 27 28 33 35 36 35 30 31 31 30 30 29 25 22 21 23 25 24 21 23 29 27 22 25 24 25 23 20 20 23 22 20 16 16 17 18 18 15 20 18 17 22 26 30
41 41 38 37 32 30 31 35 38 40 39 37 34 33 32 32 31 30 27 26 27 23 23 23 22 26 30 27 26 25 26 23 23 21 22 22 22 20 16 18 15 18 16 18 17 17 22 28 27
43 42 40 40 33 34 36 39 41 42 42 42 38 35 34 33 33 32 30 30 30 24 24 26 23 25 29 31 31 28 26 25 24 22 21 23 24 23 20 19 16 16 15 18 18 18 22 28 29
41 41 42 44 39 39 41 42 42 43 45 47 44 38 37 36 36 34 33 34 31 26 23 27 28 28 29 31 33 30 27 25 26 24 23 23 24 24 23 21 17 17 14 16 24 23 29 29 35
44 43 44 44 44 42 43 43 47 45 45 48 48 41 41 40 38 36 34 37 32 29 25 25 27 30 30 31 33 31 28 27 27 26 25 24 26 23 21 21 15 17 17 18 21 23 21 27 35
46 45 44 45 45 45 45 45 41 44 46 45 46 44 44 43 40 39 35 37 32 31 28 27 26 32 32 31 32 32 29 28 28 27 25 24 26 23 20 20 15 17 16 24 26 24 26 27 34
49 47 47 45 45 46 46 42 44 46 43 46 46 44 46 45 42 39 39 36 33 33 30 30 28 35 33 31 31 32 30 29 28 27 25 24 23 19 17 18 16 13 16 24 23 24 24 29 33
54 53 51 49 47 46 45 45 44 43 45 45 46 46 47 46 43 40 41 38 37 35 31 30 29 35 34 30 30 32 31 29 28 28 25 23 20 17 14 17 19 17 19 25 28 31 29 26 33
54 54 55 55 52 46 48 44 45 44 46 46 45 45 47 47 44 42 42 40 38 35 32 31 32 33 35 29 30 32 32 30 30 30 26 22 20 19 22 22 23 22 23 27 31 34 34 31 28
56 53 53 51 52 48 49 49 49 46 45 45 45 44 45 43 43 43 43 39 39 34 30 33 34 34 33 29 31 32 32 29 29 32 27 20 20 19 21 25 24 25 24 33 36 39 35 33 26
56 55 50 52 52 52 52 53 52 49 47 46 43 43 41 43 42 43 41 41 39 35 33 33 35 34 33 29 31 31 31 29 28 31 28 22 19 21 23 23 24 27 31 35 36 35 38 37 32
57 58 56 53 54 55 50 52 53 53 48 45 41 40 42 42 47 45 45 43 39 35 33 34 33 32 33 29 32 31 31 28 28 30 27 24 20 19 22 25 30 27 38 38 35 38 40 38 36
61 61 58 56 58 53 50 52 53 52 45 44 45 44 48 49 46 50 47 43 38 36 34 35 33 33 31 30 34 31 30 28 30 29 26 26 23 21 22 29 33 33 42 43 42 41 44 40 36
61 59 59 54 51 52 53 56 53 56 51 45 42 42 42 43 43 47 46 42 38 38 38 35 33 32 30 31 33 30 29 28 30 29 26 27 24 22 22 27 27 37 37 43 43 43 41 38 39
58 57 58 47 49 54 50 52 50 57 48 42 41 39 39 41 44 45 46 39 38 40 38 35 34 31 29 32 31 31 32 30 30 28 27 27 25 22 22 27 31 39 40 43 49 48 44 44 39
54 52 51 52 50 45 53 53 47 59 52 48 44 42 42 40 41 43 41 41 39 42 40 35 35 30 29 33 32 32 32 32 30 26 26 25 23 21 21 26 31 47 51 43 49 48 47 49 47
54 52 49 46 40 49 44 44 35 46 46 49 49 46 42 40 43 47 46 41 45 42 37 35 35 29 29 33 31 34 34 33 31 26 26 24 21 20 19 22 22 37 44 40 46 48 52 48 48
51 51 44 46 50 51 31 46 40 41 54 49 46 41 40 43 45 47 48 45 46 40 37 35 35 28 30 33 33 36 36 34 30 26 26 24 21 19 20 17 16 28 41 41 45 48 49 49 47
49 47 44 37 31 33 35 45 43 51 49 46 44 43 44 44 44 49 49 48 47 41 37 37 33 27 34 34 34 36 38 31 30 28 27 26 21 19 17 18 16 18 34 44 45 46 46 48 46
41 49 42 35 32 33 29 37 46 49 48 46 45 42 41 45 48 47 47 47 46 44 41 37 35 29 35 35 36 37 38 32 30 28 29 25 20 19 17 16 17 7 25 41 45 50 50 47 44
36 32 36 42 42 40 31 27 27 40 42 41 43 45 45 44 44 47 47 48 49 46 42 39 36 32 35 38 39 39 36 33 30 29 30 25 19 17 16 15 14 14 12 19 42 51 48 43 41
24 21 25 31 32 33 30 30 33 40 44 44 45 44 45 44 45 45 46 48 50 47 42 40 37 35 38 41 41 40 36 35 30 30 31 26 20 16 15 13 13 15 18 20 19 28 40 37 41
30 32 30 35 29 31 30 24 31 34 37 37 42 44 45 46 47 47 47 50 49 46 41 40 40 35 40 44 43 43 36 34 30 31 31 27 20 19 17 17 17 20 22 30 28 33 32 35 34

GFSSGP_500_spd_123.txt.gz
Wind_Speed
19 19 21 22 20 19 14 13 22 18 15 11 9 7 10 8 6 10 9 11 13 12 12 15 17 18 19 19 18 18 20 22 23 19 17 16 18 19 20 20 20 22 23 23 21 20 25 30 30
21 20 21 22 21 16 10 17 22 22 16 13 11 10 13 11 9 11 12 10 9 8 9 17 19 18 17 19 21 20 18 21 23 24 21 18 19 20 20 22 22 25 26 26 26 23 24 26 29
25 23 22 22 21 19 11 24 29 25 19 17 15 13 15 17 12 13 13 13 11 9 16 17 19 17 18 17 19 23 19 19 21 23 25 24 20 20 18 22 23 31 30 27 25 25 24 23 27
28 26 25 24 21 19 24 26 31 22 23 21 18 15 19 23 17 15 15 18 14 14 16 18 18 17 18 17 16 18 22 20 19 22 25 25 22 22 21 22 19 31 16 29 25 22 19 21 26
30 30 28 24 21 24 30 31 33 28 28 23 22 19 21 24 22 15 19 19 21 17 20 17 16 17 14 16 19 20 21 22 21 21 22 22 23 23 23 23 17 28 29 22 25 20 18 18 23
34 33 32 27 23 25 36 33 36 32 32 28 27 26 23 25 26 18 20 23 24 21 22 21 22 21 18 16 19 20 22 23 25 25 24 20 24 24 22 27 26 23 28 22 25 18 15 16 22
35 36 35 33 31 26 35 35 34 35 37 33 31 29 26 32 26 26 21 25 25 25 25 23 24 24 27 19 21 22 23 24 26 27 26 23 22 23 23 25 25 23 19 20 25 16 17 21 24
40 40 40 37 36 36 30 41 38 37 36 41 31 31 32 38 24 29 28 26 28 27 27 25 25 25 26 24 23 26 24 26 28 29 27 27 24 22 20 25 25 20 22 16 24 24 25 25 23
43 44 43 41 39 41 32 45 39 42 40 43 38 36 38 35 30 34 32 31 30 31 30 27 26 26 25 24 25 26 27 26 28 29 28 28 26 22 25 24 25 21 20 16 18 24 20 15 21
46 46 44 44 44 43 41 45 42 46 44 47 44 42 40 38 37 37 36 34 34 32 30 27 28 26 25 23 26 28 28 26 26 28 27 28 27 22 25 26 26 22 20 17 14 15 19 14 22
48 46 44 46 47 50 43 47 42 51 49 50 48 46 45 44 37 39 39 36 37 35 31 26 29 27 26 24 27 31 31 27 24 26 27 27 27 24 25 26 25 23 19 17 17 23 23 20 22
52 51 50 49 49 53 45 46 50 48 52 51 50 50 48 46 41 43 41 41 39 38 34 28 29 29 27 27 28 31 33 30 24 26 28 25 26 24 27 26 24 21 20 18 16 24 22 26 21
55 52 52 52 51 54 47 49 49 47 48 50 51 51 53 50 46 46 44 42 40 39 38 32 29 30 32 27 29 32 34 32 26 25 27 26 26 25 26 26 23 19 17 17 15 19 23 29 27
58 58 57 54 54 52 52 47 49 47 48 49 49 49 51 51 50 48 47 41 42 41 40 36 31 30 31 29 30 33 35 34 27 26 27 25 25 25 25 24 21 18 16 18 16 21 22 28 27
61 62 62 61 58 57 55 50 49 48 47 49 49 48 51 50 49 49 47 44 43 43 41 38 32 31 30 31 32 33 35 38 25 27 27 25 26 25 25 23 18 17 22 17 23 18 24 27 25
61 62 61 59 58 59 62 53 49 46 51 50 47 50 48 50 48 49 49 48 47 45 42 37 34 32 30 34 34 34 33 36 27 28 27 26 26 25 24 23 24 25 22 18 24 24 23 25 23
57 60 58 58 57 56 61 55 51 48 54 50 47 48 48 48 48 49 49 50 47 45 40 36 35 34 32 36 36 33 33 36 27 28 26 27 26 25 24 24 26 31 27 24 28 32 28 30 30
55 58 57 55 56 47 59 56 55 51 54 53 47 48 46 47 47 47 51 47 45 42 38 36 36 35 36 37 36 34 31 34 29 29 26 25 26 25 26 25 26 28 30 28 20 32 32 34 33
53 56 58 54 56 38 53 56 52 49 52 56 48 47 48 48 47 48 47 47 43 42 40 41 37 37 37 36 37 35 33 32 31 29 26 24 25 27 27 26 25 28 29 28 34 36 32 34 37
54 57 56 58 56 46 56 58 52 51 53 60 49 46 45 46 49 46 44 43 43 44 43 41 38 38 36 36 37 35 32 32 31 30 26 24 26 26 29 29 27 30 34 33 36 38 37 36 37
54 56 55 59 49 56 60 61 58 57 55 53 49 45 44 48 46 51 46 48 49 49 45 45 41 37 35 39 36 37 31 33 31 27 27 23 26 28 27 30 29 30 30 36 40 34 46 40 40
52 52 55 59 59 62 50 57 51 53 54 60 49 46 46 45 47 48 49 50 50 48 46 45 41 40 38 40 35 36 30 34 34 29 28 24 27 29 29 30 32 32 31 33 41 39 43 46 41
46 52 55 57 59 57 56 54 49 25 38 52 52 47 41 44 45 45 46 47 48 46 45 44 41 40 39 41 35 35 32 35 35 28 29 25 27 29 30 30 33 34 33 30 41 44 49 46 40
48 47 52 58 57 59 51 44 39 30 32 27 42 47 48 46 44 42 44 45 47 45 45 41 43 41 41 41 34 33 33 36 34 30 29 25 28 29 31 32 34 34 32 35 43 41 49 51 45
45 45 45 51 56 53 36 38 45 29 29 27 39 46 45 48 48 48 47 46 46 47 43 44 42 40 42 40 35 33 34 36 33 33 30 25 28 30 30 33 33 33 31 31 43 39 44 44 44
35 40 43 45 44 41 36 36 29 35 38 44 48 31 33 40 43 44 46 48 50 49 50 44 44 42 41 40 35 32 36 35 34 34 30 26 27 30 31 33 32 31 29 27 43 43 42 48 47
29 39 32 35 30 34 32 21 38 40 43 46 48 46 45 39 42 46 48 49 47 47 46 45 44 42 40 37 34 31 37 37 37 35 29 28 28 29 31 31 30 28 27 25 33 45 46 48 50
27 31 29 35 38 42 32 28 33 38 42 39 44 45 39 39 39 43 45 49 50 47 42 43 45 44 42 38 34 33 38 40 39 34 28 29 30 28 30 30 27 25 24 22 32 40 42 46 52
30 29 30 33 35 37 29 35 27 28 27 30 35 35 37 39 40 42 45 43 45 50 53 47 44 45 43 39 37 35 40 43 41 35 30 30 31 29 30 27 24 23 24 22 23 37 42 46 47
38 29 28 26 23 30 37 27 25 33 39 35 37 38 39 39 36 37 38 40 43 44 48 48 47 44 45 41 39 35 39 46 40 36 33 32 31 29 29 26 24 22 24 26 26 20 41 43 44

GFSSGP_500_spd_126.txt.gz
Wind_Speed
24 22 22 22 22 20 14 5 4 27 30 23 14 17 17 19 13 14 7 12 11 10 11 9 12 16 19 16 15 17 18 18 18 19 21 24 24 24 23 24 25 24 23 22 22 20 23 28 31
25 22 23 25 22 20 5 17 14 32 32 20 19 17 17 17 12 13 11 13 12 11 10 12 13 17 19 19 17 15 17 20 21 20 20 22 25 26 25 26 25 25 29 26 28 22 23 24 27
28 26 26 27 24 18 8 1 19 37 32 21 22 20 19 20 15 16 12 18 15 12 12 12 14 16 14 14 15 16 16 16 18 21 21 22 24 26 25 22 23 27 28 23 27 32 25 24 24
31 30 29 30 24 18 12 8 29 41 30 24 24 24 22 25 19 19 12 20 20 17 15 14 15 12 13 13 16 15 16 18 20 20 22 23 26 26 25 23 22 26 25 27 20 26 24 23 23
31 32 33 33 27 20 20 18 40 42 28 29 27 26 26 29 24 18 19 23 23 21 21 19 17 16 17 16 18 19 18 19 20 22 23 25 27 29 26 24 23 24 22 26 30 23 22 14 21
34 34 36 34 30 25 20 20 38 36 35 37 31 29 28 33 26 26 18 23 27 25 26 22 21 20 19 18 20 19 20 21 22 23 24 26 28 30 30 24 25 29 25 25 21 22 23 18 17
36 37 39 36 34 30 16 30 40 40 38 41 37 33 29 36 38 29 25 24 29 28 28 28 24 24 23 22 21 21 20 20 25 25 25 27 28 31 29 27 24 28 27 24 20 24 25 24 19
39 41 42 41 38 35 29 25 44 41 36 36 44 38 33 42 41 30 31 30 29 30 30 31 28 26 25 25 23 22 21 23 24 25 26 28 28 29 30 26 25 28 26 24 22 21 25 20 18
43 45 45 42 40 36 34 33 45 49 40 39 47 43 37 44 42 34 33 36 30 31 31 33 32 29 27 25 25 25 23 25 26 27 26 29 29 28 27 26 24 26 26 24 22 18 23 21 19
47 49 45 43 42 43 39 31 47 49 48 41 50 50 41 45 43 44 39 39 36 32 34 35 32 31 29 26 25 27 24 26 26 29 28 31 28 28 24 26 25 24 24 24 21 21 17 19 19
48 51 48 48 45 46 47 47 39 53 50 49 47 54 51 46 48 48 44 40 40 38 36 34 33 31 29 27 27 28 27 28 27 30 31 31 28 26 22 22 26 27 23 22 20 20 18 22 20
53 52 53 51 50 50 52 52 54 54 49 49 52 54 55 56 53 50 42 43 43 45 41 37 35 34 30 30 28 28 27 28 29 31 31 29 29 26 24 22 24 27 24 20 21 22 21 22 25
57 56 55 55 56 52 54 56 52 49 53 49 51 53 54 55 54 55 46 46 44 43 45 43 37 36 32 32 30 29 29 29 29 31 31 30 28 25 23 22 24 24 23 20 18 20 17 19 19
56 58 59 60 59 59 58 54 56 47 47 50 50 53 52 52 54 53 52 49 48 46 44 48 43 37 34 33 31 30 29 31 30 30 30 29 28 24 21 22 24 23 19 18 24 21 14 15 18
57 60 59 61 60 61 61 61 57 51 48 49 50 51 52 49 51 53 52 50 48 45 47 46 44 40 34 33 31 32 31 32 32 32 32 27 28 24 21 21 23 22 20 23 22 21 19 19 23
52 57 61 59 61 60 61 63 59 58 54 52 51 51 53 52 51 51 50 51 48 45 48 49 43 39 36 30 32 33 33 32 31 34 32 28 28 25 22 20 23 24 23 28 28 24 28 28 26
52 57 56 53 57 58 54 62 54 52 51 54 54 53 53 50 53 49 50 51 47 47 50 46 41 40 35 33 31 34 34 32 33 35 31 28 28 23 22 21 23 26 25 28 32 33 17 22 22
48 54 53 55 52 50 52 43 46 46 46 43 50 55 56 52 53 51 50 50 51 49 43 39 37 36 37 32 31 36 34 32 33 35 33 29 29 23 22 21 23 26 26 29 28 30 20 21 26
45 50 52 51 53 45 43 58 53 44 32 40 45 55 52 52 52 51 52 50 50 47 39 41 38 35 37 36 34 36 34 33 32 36 33 29 28 23 22 21 24 27 26 27 28 28 32 25 32
47 48 48 50 53 54 51 57 52 53 55 46 46 40 54 49 50 49 53 55 50 41 42 39 39 38 39 37 36 36 36 33 33 37 32 29 26 26 24 25 23 27 29 27 30 31 33 27 36
45 47 48 47 45 47 55 60 59 53 52 52 53 51 47 41 44 44 57 55 47 45 41 37 40 40 37 36 35 38 37 35 33 37 28 29 29 28 25 25 24 26 30 30 30 34 36 33 33
48 41 39 43 48 52 47 58 56 51 46 47 50 45 48 36 41 53 55 48 50 47 42 42 43 42 42 38 38 40 35 36 34 37 31 32 29 27 25 24 25 27 30 32 32 35 35 39 36
49 42 40 45 50 51 52 53 48 47 47 46 42 44 43 44 47 50 49 46 44 46 44 45 46 44 43 38 41 37 37 35 36 37 33 31 31 28 25 24 25 28 30 32 31 32 38 40 41
47 49 47 51 50 54 43 42 43 40 35 36 26 36 39 50 56 45 44 45 50 47 45 43 42 41 39 38 39 37 37 34 37 37 32 30 30 26 25 25 26 28 31 34 32 35 43 37 41
29 41 41 37 50 55 40 40 37 33 25 30 36 32 38 45 47 41 42 39 41 43 43 44 42 41 40 40 38 39 40 34 37 37 29 32 30 27 26 26 26 29 33 33 34 34 37 38 43
39 39 39 37 40 40 32 40 38 28 29 39 29 40 44 39 34 39 41 37 41 43 44 44 44 45 42 43 42 45 37 35 36 34 30 33 30 28 26 27 27 31 34 33 33 33 29 42 41
26 38 37 39 38 33 34 35 30 31 34 34 42 45 49 35 27 37 39 42 42 43 43 41 46 45 43 43 41 38 38 35 36 32 30 34 32 29 28 27 29 31 34 31 32 30 26 40 42
41 35 29 32 34 34 26 29 22 23 30 37 46 52 54 42 33 33 39 41 40 43 46 46 45 45 49 50 49 43 36 35 36 32 30 35 29 29 29 28 31 30 33 29 29 28 19 40 41
26 22 40 36 30 33 27 22 25 24 33 31 46 51 53 49 44 48 47 41 39 41 43 45 42 43 42 39 40 37 35 35 37 33 31 35 31 30 30 29 31 29 31 28 26 23 22 30 44
28 17 26 33 22 35 34 27 27 28 32 36 39 33 40 42 48 45 41 36 40 39 39 43 39 40 47 44 40 35 36 35 38 35 32 35 33 31 31 28 30 28 29 26 26 26 27 22 39

GFSSGP_500_spd_129.txt.gz
Wind_Speed
27 27 26 25 23 21 8 8 3 12 15 27 32 33 26 25 21 15 7 5 7 7 8 6 8 11 13 15 14 15 16 17 18 20 22 21 23 24 24 23 22 21 21 23 27 28 24 23 25
28 28 27 26 24 20 4 12 8 13 21 28 33 25 26 27 23 14 10 9 10 9 9 9 11 11 10 11 11 13 15 16 16 16 18 20 23 26 27 24 20 22 24 28 34 34 32 26 24
30 30 29 27 26 18 8 10 6 10 26 34 37 34 29 30 24 19 9 13 14 13 12 12 13 14 12 9 11 13 15 16 17 17 18 19 22 24 28 29 25 21 23 27 19 17 28 31 25
29 30 30 29 26 20 12 21 20 20 25 37 43 32 29 29 28 19 13 17 17 18 16 16 17 16 13 13 13 14 16 17 17 18 19 20 21 26 29 31 29 23 23 24 24 21 28 33 28
30 31 32 30 26 23 16 22 18 23 32 38 39 30 28 32 31 25 21 21 21 22 19 19 18 17 15 15 15 16 18 18 20 19 19 21 21 24 28 30 27 24 24 23 23 23 28 24 19
33 32 35 33 31 26 24 19 22 29 33 38 38 36 36 37 35 32 26 20 24 25 25 24 21 19 18 14 17 19 18 20 21 23 24 23 23 25 28 30 27 26 24 25 21 21 19 17 17
33 36 38 37 34 32 26 26 30 25 31 41 40 38 37 39 41 37 31 25 27 25 31 29 26 23 22 19 15 19 20 20 23 24 25 26 27 27 27 29 26 24 25 26 25 19 20 22 20
38 39 39 38 36 33 26 28 32 33 40 42 40 40 37 40 43 43 38 30 30 29 32 33 30 27 28 24 21 19 21 21 22 24 26 28 28 28 26 28 25 23 21 26 24 20 21 22 24
44 47 44 37 36 33 31 30 32 41 44 45 46 43 43 36 41 44 44 37 31 34 35 35 34 30 30 28 24 22 22 23 22 25 26 29 29 30 28 26 23 22 21 22 22 21 20 18 22
48 49 47 41 40 40 36 36 37 48 49 47 48 49 47 45 42 44 45 45 39 39 34 32 35 34 33 30 26 26 25 24 23 25 27 29 31 29 28 24 22 21 23 22 21 21 20 20 23
50 52 48 47 45 44 43 45 42 48 55 53 52 48 48 48 48 47 48 48 44 42 39 35 33 35 35 31 28 29 28 27 25 25 25 30 32 32 28 23 22 23 23 23 19 22 19 18 19
56 55 55 52 50 49 48 47 48 49 54 57 57 51 47 49 52 54 52 50 48 42 41 40 36 33 35 35 32 31 31 29 26 27 26 29 32 32 27 23 22 23 23 21 20 19 18 19 22
55 56 57 57 56 54 53 54 52 52 52 54 50 48 48 50 53 51 51 51 46 47 47 43 37 36 37 36 35 33 32 30 27 28 26 29 32 33 29 22 22 23 22 22 17 17 17 20 22
51 55 57 58 60 61 61 57 56 53 50 50 47 46 47 49 49 52 51 52 52 43 47 44 44 40 39 37 37 33 34 31 29 29 28 28 31 32 31 22 23 23 20 22 17 16 20 20 17
50 53 55 54 56 59 57 63 59 53 51 50 50 50 47 47 49 50 51 53 51 46 46 45 44 45 36 35 37 34 34 31 30 29 29 29 31 33 31 22 23 25 18 21 20 20 17 16 19
49 52 52 48 50 50 53 64 61 55 54 56 51 51 52 50 51 51 50 54 51 50 47 45 47 44 35 32 34 33 34 34 30 27 33 30 31 33 30 22 23 25 19 20 21 21 24 21 23
50 50 52 50 50 51 51 57 55 55 54 56 57 54 53 56 57 55 53 53 49 52 49 47 46 42 36 32 34 35 33 33 29 29 33 30 32 32 28 23 23 26 22 21 21 21 22 28 24
47 51 51 51 50 53 53 51 58 59 55 54 60 53 52 58 58 58 57 53 51 51 47 47 44 42 40 35 31 33 32 29 31 30 33 30 31 32 27 24 23 26 25 22 23 23 22 23 21
49 51 51 48 45 51 51 55 57 54 51 47 50 47 50 50 56 58 60 60 53 52 49 48 42 42 41 37 31 32 32 32 31 31 33 30 33 30 28 25 24 26 25 23 23 24 20 21 27
47 49 49 47 49 52 52 53 54 52 46 49 49 50 53 52 52 54 55 57 57 54 53 48 40 40 39 37 33 29 33 32 30 32 30 32 33 28 28 25 27 26 25 23 23 24 23 24 25
47 47 47 46 46 50 51 55 51 44 51 44 48 50 52 54 49 40 46 58 59 59 55 40 41 40 38 37 37 38 34 29 27 29 33 34 33 29 30 26 28 27 27 23 23 25 25 26 27
49 43 46 50 51 53 44 54 47 46 44 44 47 48 48 50 52 39 48 54 58 61 50 34 41 39 39 37 35 36 33 30 30 33 36 33 34 30 31 26 28 29 28 25 23 24 25 27 29
53 48 49 50 53 54 53 54 41 43 44 41 38 38 44 53 52 48 56 53 51 55 37 37 40 40 39 38 38 39 36 35 35 35 36 32 35 29 28 27 30 30 29 27 25 24 27 27 29
49 49 50 50 47 53 54 57 54 45 40 32 33 34 36 48 52 59 54 53 51 44 34 35 37 40 39 40 40 41 39 39 37 35 34 34 34 26 28 28 29 28 29 27 26 27 28 30 33
50 51 50 42 47 50 42 51 57 51 37 29 28 34 32 37 40 49 47 44 47 42 35 39 39 38 36 36 36 36 35 35 36 35 33 36 32 26 26 29 28 26 29 29 28 29 29 30 33
50 41 33 37 44 45 37 44 46 44 37 37 33 30 34 35 38 47 42 34 40 35 35 37 42 47 37 34 34 35 36 34 38 36 41 40 29 27 27 30 27 26 30 30 28 28 30 29 29
44 38 40 45 43 47 47 38 33 17 24 24 35 36 36 38 45 47 34 32 39 44 44 41 41 38 38 35 36 37 39 39 39 40 42 38 30 28 29 29 29 29 29 29 30 30 30 30 29
41 38 36 35 25 36 36 35 21 18 18 27 36 44 39 39 43 44 37 33 36 36 36 38 37 37 40 38 39 40 39 39 36 37 37 36 30 27 30 31 31 30 29 28 30 30 29 28 27
37 32 34 41 44 31 24 14 18 24 21 27 31 35 39 45 45 40 34 33 40 45 46 40 43 46 44 44 43 43 45 41 40 39 38 37 32 26 27 31 30 30 28 28 29 27 28 27 27
14 28 33 20 21 41 46 27 25 24 28 33 34 41 36 47 50 47 47 47 43 40 42 38 38 41 43 41 40 39 38 35 37 40 39 38 33 28 28 32 32 30 29 29 30 26 26 25 24

GFSSGP_500_spd_132.txt.gz
Wind_Speed
26 27 27 25 22 18 6 14 16 16 16 13 13 22 25 30 28 27 11 9 7 9 7 7 6 9 10 11 10 10 11 13 14 15 18 19 20 20 21 23 26 26 24 23 22 19 23 29 29
28 28 28 27 24 19 7 23 22 19 13 17 18 24 25 26 24 24 19 12 10 12 8 7 8 11 11 12 10 10 10 13 14 16 17 18 20 22 23 24 25 26 24 23 20 20 20 23 23
27 28 29 29 26 18 11 26 24 25 26 9 18 25 28 32 29 26 25 16 15 15 12 9 10 11 12 11 11 12 13 15 16 16 16 17 19 21 23 25 27 26 23 24 23 19 22 22 9
26 28 30 30 25 20 12 23 26 31 35 17 20 29 35 36 34 31 27 20 18 22 16 14 15 15 15 13 13 15 15 15 16 17 17 18 18 20 23 27 30 27 22 22 24 22 21 21 22
26 27 30 30 26 20 16 22 26 32 32 26 29 30 33 33 36 32 27 24 26 25 22 18 18 18 18 17 15 15 17 17 17 19 20 21 20 21 24 29 30 30 24 22 22 20 20 19 18
27 27 29 28 28 27 21 23 33 37 36 31 32 35 36 33 36 33 29 28 27 30 30 25 23 21 21 20 19 17 17 18 18 20 21 22 22 23 25 30 31 30 25 22 22 22 21 18 14
30 33 33 30 27 27 20 25 32 39 42 41 36 37 38 40 41 39 33 30 28 29 32 30 30 26 25 24 21 20 19 19 20 20 22 23 25 26 27 29 32 31 23 21 22 21 21 19 16
36 41 38 35 29 27 22 29 26 35 39 41 36 39 42 39 41 43 40 37 33 31 30 33 37 33 30 28 25 22 21 21 22 22 24 24 24 27 29 31 31 31 22 20 21 20 21 19 13
41 43 41 37 36 34 26 33 36 37 42 42 44 45 46 45 42 42 41 38 36 36 31 35 37 37 37 32 29 26 23 22 23 23 24 24 23 26 30 32 32 31 20 20 19 23 20 19 17
45 45 44 41 42 41 37 37 36 43 45 43 47 49 50 50 48 42 42 41 38 36 36 35 36 33 35 35 33 30 26 25 24 24 24 24 24 26 29 31 31 29 21 23 21 23 21 19 17
47 45 47 48 47 47 47 45 39 44 49 50 50 53 52 54 52 48 43 45 43 43 40 36 34 33 35 35 34 32 31 28 28 26 26 26 24 24 28 30 30 28 22 23 21 20 22 20 18
46 46 46 48 51 52 52 49 48 48 49 53 57 57 58 56 50 49 48 44 45 46 43 37 34 35 34 34 34 34 33 33 31 29 27 27 25 25 26 29 30 27 23 23 23 19 21 17 17
47 47 49 51 53 54 54 54 54 51 51 48 53 58 59 54 48 46 47 47 44 46 41 38 38 37 37 35 36 35 35 35 33 31 28 27 26 25 26 28 29 25 22 23 23 17 17 15 15
46 47 47 49 52 51 50 52 54 53 50 50 50 53 56 55 50 48 50 49 48 45 44 39 40 39 36 38 39 38 38 36 34 32 29 29 27 26 25 28 28 24 22 23 23 17 14 18 15
47 47 47 48 48 48 49 54 54 50 45 48 51 53 55 55 54 51 50 51 52 48 45 40 41 40 40 36 37 37 37 37 35 32 33 30 28 27 25 27 27 25 22 23 22 19 16 21 23
50 51 50 47 45 47 47 51 49 48 49 51 49 52 66 66 63 60 58 57 56 52 46 39 42 41 42 36 34 36 36 36 35 34 34 32 28 29 26 27 26 26 23 23 23 20 16 16 20
47 51 52 52 49 48 50 54 52 51 53 56 55 55 60 63 66 67 65 64 60 54 52 47 39 41 43 39 34 35 37 37 37 36 36 33 31 30 26 28 26 25 23 24 24 21 17 16 18
49 50 51 51 46 49 51 53 49 54 59 58 57 55 53 58 61 62 65 65 64 58 57 53 46 44 45 39 36 32 33 37 39 37 37 35 32 29 27 27 25 25 24 25 23 21 19 17 15
50 52 52 49 45 55 54 54 54 55 60 61 54 52 50 48 47 57 63 61 61 59 58 58 53 49 47 39 38 33 32 36 37 37 37 33 31 29 27 28 27 26 26 26 23 22 20 17 16
49 50 50 48 48 54 55 57 55 52 58 53 48 48 47 42 42 49 55 59 64 62 62 61 59 54 46 42 40 35 34 37 39 38 37 33 32 30 28 29 26 26 28 27 25 24 20 18 19
47 52 52 52 53 55 58 60 55 51 54 51 49 44 45 45 44 50 52 53 55 56 57 60 58 58 49 44 46 39 34 35 38 35 38 39 35 32 30 34 28 25 28 29 26 27 22 20 20
49 51 53 54 55 56 57 62 52 53 50 47 47 39 42 47 50 57 51 54 57 48 53 56 52 49 42 44 46 41 37 36 37 38 40 41 33 30 32 34 29 26 29 30 30 29 24 21 20
52 55 57 56 56 58 55 64 55 56 54 53 48 37 39 46 55 61 46 53 55 57 53 51 49 41 37 39 41 42 41 38 35 37 36 38 34 32 33 34 30 26 28 31 32 30 28 24 21
57 56 54 53 52 55 58 54 57 57 58 58 51 45 37 41 51 52 55 55 57 60 58 50 48 45 40 39 41 41 41 39 35 36 37 40 39 37 33 32 30 26 28 30 32 31 29 25 26
55 57 59 61 54 52 49 45 59 50 40 38 48 46 35 39 45 44 49 50 51 58 57 48 46 39 33 37 35 37 40 40 38 38 41 41 40 35 32 30 30 26 28 31 33 30 28 26 28
54 52 47 52 54 48 34 40 32 33 33 26 39 47 41 33 43 40 44 50 48 53 60 37 41 37 36 38 33 36 39 39 36 39 38 39 37 34 32 28 31 26 29 31 32 29 28 27 29
50 51 50 44 40 41 33 31 34 38 36 32 24 36 37 34 36 39 42 43 51 55 50 39 37 38 33 30 38 46 46 37 36 38 38 36 35 35 34 33 34 26 31 32 32 31 28 29 30
38 47 49 43 40 34 22 17 26 32 24 24 19 28 31 36 39 41 41 44 40 41 41 39 42 39 35 39 44 47 43 39 36 39 37 36 39 41 39 37 34 30 31 32 33 32 29 29 29
28 35 35 32 30 32 34 38 20 22 26 26 22 31 39 37 40 39 42 38 40 37 36 42 42 36 42 43 39 34 33 34 40 42 42 42 41 40 37 35 34 33 33 34 34 34 30 28 30
9 14 21 28 19 15 32 34 39 30 27 27 29 30 40 44 49 46 34 47 41 44 40 44 43 39 38 39 41 42 39 42 41 42 43 42 43 40 37 35 36 31 31 34 36 34 31 29 28

GFSSGP_500_spd_135.txt.gz
Wind_Speed
28 28 28 27 26 21 10 14 22 22 21 17 17 15 17 19 21 23 19 11 14 13 9 8 8 8 9 12 10 9 10 10 11 13 16 17 17 17 17 18 20 24 27 26 23 21 18 20 20
26 26 27 29 27 20 11 16 24 23 24 19 17 15 16 22 27 26 25 19 18 18 16 10 10 10 9 10 9 10 12 13 14 15 15 16 17 18 17 19 21 26 28 27 24 22 19 19 20
24 25 26 28 25 19 12 19 26 25 25 28 20 18 23 28 28 28 30 27 24 20 21 15 12 11 11 12 10 11 14 16 16 16 16 16 18 17 18 20 24 27 30 30 26 21 20 20 19
23 22 24 25 20 18 12 20 23 30 29 32 34 33 26 26 29 31 33 32 29 27 26 19 16 15 15 17 15 14 15 16 17 17 17 17 19 20 19 22 25 29 30 32 31 22 20 19 21
24 23 26 23 18 15 17 23 27 31 32 37 40 38 36 32 33 36 36 34 32 27 28 27 19 18 17 18 18 19 18 17 19 19 18 18 20 21 21 22 25 28 32 33 33 22 20 20 22
26 26 28 24 20 19 17 22 28 34 38 35 38 38 36 36 35 35 36 35 34 27 27 30 27 23 22 21 21 22 22 21 20 21 21 20 21 22 22 23 25 28 31 31 29 22 19 19 20
30 32 33 29 23 21 16 22 29 35 40 42 42 39 38 38 41 42 39 35 35 33 26 29 32 30 27 25 25 24 24 25 23 23 23 22 22 22 23 24 25 28 31 29 25 22 18 19 20
34 39 38 32 27 25 20 26 30 34 38 44 48 49 44 42 43 43 43 38 37 37 33 29 29 31 33 31 30 28 28 26 26 26 25 24 24 23 23 25 24 26 30 28 24 21 19 22 21
38 42 40 33 33 34 27 33 34 37 37 43 47 48 45 47 46 45 45 41 34 35 36 33 33 34 35 34 32 31 29 28 26 27 27 25 25 24 22 25 25 26 29 29 20 20 22 24 20
42 43 41 39 42 42 39 39 35 41 42 43 45 48 48 49 49 49 48 46 39 33 35 35 36 34 33 33 33 34 31 29 28 27 29 27 27 26 23 24 26 27 28 28 20 20 23 24 20
45 45 41 41 43 45 45 44 42 46 46 45 49 49 50 52 53 52 52 50 44 40 35 36 35 33 33 33 32 32 30 29 28 29 30 30 27 28 24 23 25 26 28 28 19 20 23 24 22
47 43 45 45 45 46 46 45 44 46 46 45 52 53 53 54 56 54 53 53 51 47 42 38 34 32 33 34 33 32 32 32 30 32 32 32 30 28 26 23 25 25 25 27 19 19 22 23 19
48 48 49 49 48 47 47 47 47 45 47 47 47 54 57 57 58 61 58 52 55 49 44 39 35 31 30 33 32 33 34 36 33 34 33 33 32 29 27 25 26 25 23 25 19 19 21 21 16
51 52 53 49 47 47 47 46 49 46 39 46 48 50 55 58 59 60 61 56 53 53 46 43 40 33 32 32 33 33 36 37 38 37 34 34 33 31 29 26 26 25 23 24 20 18 21 20 19
52 51 47 46 46 48 49 42 46 48 48 47 49 49 51 56 58 60 62 61 57 55 52 47 45 39 33 33 35 35 35 36 38 36 35 34 34 33 31 28 27 26 24 24 21 17 20 20 18
49 47 47 45 47 50 50 40 43 47 50 49 50 51 52 53 59 60 63 64 61 58 57 53 50 44 40 37 36 35 35 37 38 35 34 35 36 36 32 30 28 28 23 24 21 19 19 20 18
49 49 50 51 49 48 50 43 45 51 50 51 48 47 49 51 59 66 69 69 70 67 62 60 58 51 44 42 38 37 38 40 35 34 37 37 37 37 34 32 30 30 23 23 22 21 20 19 20
51 50 49 50 48 50 53 50 47 54 57 53 51 49 46 48 48 61 70 73 75 71 68 67 65 61 52 46 42 40 38 39 37 38 38 40 40 38 37 34 31 30 23 23 26 24 21 19 21
50 50 49 46 47 55 53 54 50 52 56 57 55 51 50 45 41 48 57 64 67 67 77 77 66 66 64 55 50 45 39 44 38 35 36 39 38 38 37 35 32 30 25 26 28 23 22 21 21
46 49 50 51 53 57 56 56 50 50 53 52 53 53 53 53 46 45 46 54 58 55 58 53 63 69 66 61 57 54 45 43 35 43 43 39 38 40 38 36 32 30 27 28 28 26 24 23 23
47 50 51 52 53 54 56 55 50 48 51 53 54 54 53 55 58 51 45 48 52 54 57 49 49 61 58 59 59 53 48 44 45 48 47 43 42 41 41 37 36 32 29 29 30 32 27 28 23
50 51 51 52 54 56 57 63 53 50 50 53 55 56 58 57 53 48 49 45 44 47 51 51 51 52 59 56 63 59 50 48 47 49 48 46 42 41 40 38 36 32 29 27 32 32 32 30 25
52 52 54 55 55 58 53 64 53 53 55 58 59 60 59 61 59 51 50 45 43 49 55 49 53 55 56 54 54 51 53 48 48 47 47 46 46 42 39 39 36 34 32 31 32 34 31 30 27
53 56 57 57 58 63 56 64 62 56 65 64 66 65 65 62 58 51 47 46 46 48 55 54 55 50 51 46 46 43 49 49 44 42 44 46 49 46 41 38 39 36 34 31 32 35 33 30 29
56 60 62 63 63 65 63 67 67 64 62 64 65 64 61 63 60 51 49 45 47 51 55 56 54 52 53 48 49 43 47 52 43 40 42 47 48 45 39 39 40 37 35 34 32 33 33 30 30
54 57 60 66 67 69 66 70 63 54 52 54 56 52 49 48 54 51 48 46 46 51 52 59 59 58 50 51 54 49 48 49 37 36 35 41 46 44 41 41 41 39 36 35 31 35 31 31 31
56 60 60 62 66 69 69 65 43 37 43 46 49 40 38 34 42 47 43 45 46 50 57 59 53 51 45 41 37 44 47 49 39 35 38 40 43 44 45 47 41 42 38 36 31 32 32 32 33
60 59 55 51 51 51 42 30 33 31 26 28 40 35 34 34 40 41 45 46 46 45 42 42 50 50 41 31 33 37 36 43 40 38 39 42 42 41 42 44 44 43 39 36 32 34 34 36 34
48 42 32 21 16 19 18 23 26 29 34 25 21 32 32 25 33 40 44 45 42 39 41 43 43 40 30 29 36 34 41 40 41 47 47 38 39 41 42 42 42 40 41 37 36 36 34 35 35
25 11 10 12 19 19 16 12 20 28 31 31 27 25 23 22 29 37 44 44 42 44 40 40 42 37 34 39 39 39 42 46 48 45 49 53 44 45 43 44 42 41 41 40 40 36 36 37 37